GEFSNE_500_meanwind_084.txt.gz
Wind_Speed
45 45 44 43 43 42 41 41 40 40 39 39 39 38 38 38 37 37 36 35 34 34 33 32 31 31 30 30 30 30 30 30 31 33 35 37 38 39
44 43 42 42 41 40 40 40 39 39 38 38 37 37 37 37 36 36 35 35 34 33 32 32 31 32 32 31 30 29 29 29 31 33 35 38 38 40
42 42 41 40 39 39 39 38 38 38 37 36 37 36 36 36 36 35 35 34 33 33 32 32 32 33 32 31 31 31 31 31 32 33 35 36 37 38
41 40 39 39 38 38 37 37 37 36 36 36 36 36 36 35 35 35 34 33 33 33 33 33 33 33 32 33 32 32 32 32 33 34 35 37 38 39
39 39 38 37 37 37 36 36 36 35 35 35 35 35 35 35 35 34 34 34 33 33 33 33 33 33 34 34 34 35 35 36 37 37 38 38 40 41
38 37 36 36 36 35 35 34 34 34 34 34 34 34 34 34 34 34 34 34 34 35 35 34 35 35 36 36 37 37 38 39 39 40 40 41 42 42
36 36 35 35 34 33 33 33 33 33 33 33 33 34 34 34 34 35 35 36 36 36 36 36 36 37 38 38 39 40 41 41 42 42 43 43 44 44
34 34 33 33 32 32 32 32 32 32 32 33 33 34 34 35 35 36 36 37 37 38 38 38 39 40 40 40 41 42 42 43 43 44 44 45 45 46
33 32 32 31 31 31 31 31 31 32 32 33 34 34 35 36 36 37 37 38 39 39 40 41 41 42 43 43 43 43 43 43 44 44 45 45 46 46
31 31 30 30 30 30 30 31 31 31 32 33 34 35 36 37 37 38 39 40 40 41 42 42 43 44 44 45 44 44 44 45 45 45 46 47 47 47
30 30 29 30 30 30 30 30 31 32 33 34 35 36 37 37 38 39 40 41 42 43 43 44 45 45 46 46 45 45 45 45 45 46 46 47 47 47
29 29 29 29 29 30 30 31 32 33 34 35 36 37 37 38 39 40 41 42 43 44 44 45 46 46 46 47 47 46 45 45 45 45 45 46 46 46
28 28 29 29 29 30 31 32 33 34 35 36 37 38 39 39 40 41 42 43 44 44 45 46 46 46 46 46 47 46 45 44 44 44 44 44 44 44
28 28 29 29 30 31 32 33 33 35 36 37 38 39 40 40 41 42 43 44 44 45 46 46 46 46 46 45 46 46 45 45 44 44 43 43 43 43
28 29 29 30 31 32 32 33 34 35 37 38 39 40 41 41 42 43 44 45 45 46 46 46 45 45 45 45 45 45 45 44 43 43 42 42 42 42
29 30 30 31 31 32 33 34 35 36 38 39 39 40 41 42 42 43 44 45 46 46 46 46 45 45 45 44 44 44 44 43 43 41 40 39 39 39
30 30 31 31 32 33 34 35 36 37 38 39 40 41 41 42 43 44 45 46 46 47 47 46 44 43 43 42 42 42 42 41 40 39 37 37 37 37
31 32 32 33 33 34 35 36 37 38 39 39 40 41 42 43 43 44 45 46 46 46 45 44 43 43 42 42 41 41 40 39 38 37 36 35 35 35
33 33 33 34 35 36 36 37 38 38 39 40 41 41 42 43 44 45 46 46 46 45 45 44 43 42 41 40 41 41 40 38 37 35 34 33 33 33
33 34 35 35 36 36 37 37 38 39 39 40 41 42 43 44 44 45 45 45 45 44 44 44 43 42 40 39 39 40 39 37 35 34 33 32 31 31
34 35 35 36 36 37 37 38 39 39 40 41 42 43 44 44 45 45 45 45 44 44 44 43 42 41 40 39 38 37 37 36 34 33 31 30 29 29
35 36 36 37 37 37 38 39 39 40 41 42 43 43 44 45 45 45 45 44 44 44 43 42 41 41 40 38 37 36 36 36 34 32 31 29 27 27
36 37 37 37 37 38 39 40 41 41 42 42 43 44 45 45 45 45 45 45 44 43 42 41 41 40 39 38 36 35 34 34 33 31 31 29 27 26

GEFSNE_500_meanwind_090.txt.gz
Wind_Speed
49 49 48 48 47 47 46 45 44 43 42 41 40 40 39 38 37 36 35 35 34 34 33 33 33 32 31 30 30 30 30 29 29 29 29 28 28 28
48 48 47 47 46 45 44 43 42 42 41 40 39 38 38 37 36 35 34 34 33 33 32 32 32 31 31 31 30 30 30 30 30 29 29 28 28 28
47 46 45 45 44 44 43 42 41 40 39 38 38 37 36 35 34 34 33 33 33 32 32 32 31 31 31 31 31 31 30 30 30 30 30 30 30 30
46 45 44 44 44 43 42 40 40 39 38 37 36 35 34 34 33 33 32 32 32 32 32 31 31 31 31 31 32 32 32 32 32 32 32 32 32 32
45 45 44 44 43 42 40 39 38 37 37 36 35 34 33 33 32 32 31 31 31 31 31 31 31 32 32 32 33 33 33 34 34 34 34 35 35 35
44 44 43 42 40 39 38 37 36 36 35 34 33 33 32 31 31 31 31 31 31 31 31 32 32 33 33 33 34 35 35 36 36 36 37 37 37 37
42 42 41 39 38 38 36 35 35 34 33 33 32 32 31 31 31 31 31 31 32 32 32 33 33 34 34 35 36 36 37 38 38 38 38 39 39 39
40 39 38 37 36 35 35 34 33 33 32 32 31 31 31 30 30 30 31 31 32 32 33 34 35 35 36 37 37 38 39 39 39 39 40 40 40 40
37 36 35 35 34 33 33 32 32 32 31 31 31 30 30 30 30 31 31 32 32 33 34 35 36 36 37 38 39 39 39 40 40 40 41 41 41 41
34 34 33 32 32 31 31 31 31 30 30 30 30 30 30 30 30 31 32 32 33 34 35 36 36 37 38 39 39 39 40 41 41 41 42 43 43 43
32 32 32 31 31 31 30 30 30 30 30 30 30 30 30 30 31 32 32 33 34 35 36 36 37 38 39 40 40 40 41 41 41 42 42 43 43 44
31 30 30 30 29 29 29 29 29 29 29 29 30 30 30 31 32 32 33 34 35 36 37 37 38 39 40 41 41 41 41 41 41 42 42 43 43 43
29 29 29 29 29 29 28 28 29 29 29 30 30 30 31 32 32 33 34 35 35 37 37 38 39 39 40 41 41 41 41 41 42 42 42 42 42 42
28 28 28 28 28 28 28 28 29 29 30 30 30 31 32 32 33 34 35 36 36 37 38 38 39 40 40 40 41 42 42 42 42 42 41 41 41 41
28 28 28 28 28 28 28 29 29 30 30 30 31 31 32 33 34 35 36 37 37 38 38 39 39 40 40 40 41 42 42 42 42 41 41 40 40 40
28 28 28 28 28 29 29 30 30 31 31 31 32 32 33 34 35 36 36 37 38 39 39 39 40 41 41 41 41 42 41 41 41 41 40 40 39 39
27 28 28 29 29 29 30 30 31 31 32 32 33 34 34 35 36 36 37 38 38 39 40 40 41 42 42 42 42 41 41 41 41 40 40 39 39 38
28 29 29 30 30 31 31 32 32 33 33 34 34 35 36 36 37 37 38 38 39 40 40 41 42 42 42 42 42 42 41 41 41 40 39 37 37 37
30 30 31 31 32 32 33 33 34 34 34 35 36 36 37 37 37 38 38 39 40 40 41 42 42 42 41 41 42 42 41 41 41 40 38 36 35 34
31 31 32 32 33 33 34 34 35 35 35 36 36 37 37 37 38 39 39 40 40 41 42 42 43 42 42 41 41 42 42 41 40 39 37 36 34 33
32 33 33 33 34 34 35 35 35 35 36 36 37 37 38 39 39 40 40 40 41 42 42 43 43 43 42 41 40 41 42 41 39 38 36 35 33 33
34 34 34 34 35 35 36 36 36 36 37 38 38 39 39 40 40 40 41 41 42 42 42 43 44 43 42 41 40 40 41 41 40 38 36 34 32 31
34 35 35 35 36 36 36 37 37 38 39 39 39 40 40 41 41 41 41 42 42 42 43 43 44 43 42 41 40 40 40 39 38 37 36 34 32 30

GEFSNE_500_meanwind_096.txt.gz
Wind_Speed
48 47 46 46 45 45 45 45 45 44 43 42 42 41 41 39 38 37 36 35 34 32 31 29 28 28 27 27 26 26 26 25 25 25 25 25 25 25
48 48 47 46 45 45 45 45 44 43 42 42 41 40 39 38 37 36 35 34 32 30 29 28 28 27 26 26 26 25 25 25 25 25 25 25 25 25
48 47 47 46 46 45 45 44 44 43 42 41 40 39 38 37 36 35 34 32 30 29 28 27 27 26 26 25 25 25 25 25 25 26 26 26 26 26
46 46 46 45 45 45 44 44 44 43 42 41 39 38 37 35 34 33 32 31 30 28 28 27 27 26 26 26 25 25 25 26 26 26 27 27 28 28
46 45 45 45 45 44 44 43 43 42 41 40 39 37 36 35 33 32 31 30 29 28 27 27 27 26 26 26 26 26 26 27 27 28 28 29 30 30
44 44 43 43 43 43 42 41 41 40 40 39 37 35 34 32 31 31 30 29 28 28 27 27 26 26 26 26 27 27 27 28 28 29 30 30 31 31
43 43 42 42 42 41 40 40 39 38 37 36 34 32 31 30 30 30 29 28 28 27 27 26 26 26 26 27 27 28 28 29 29 30 31 31 32 33
41 41 41 41 40 39 38 38 36 35 34 33 32 31 30 30 29 28 28 27 27 27 27 26 27 27 27 28 28 29 29 30 31 31 32 32 33 34
40 39 39 38 37 37 36 35 34 33 32 31 30 30 29 28 28 28 27 28 27 27 27 27 27 27 28 29 29 30 30 31 31 32 32 33 34 35
38 37 36 35 35 34 34 33 32 32 31 30 29 29 28 28 28 28 28 28 28 27 27 28 28 28 29 30 30 31 31 31 32 32 32 33 34 34
36 34 34 34 33 33 32 32 31 30 29 29 28 28 27 28 28 28 28 28 28 28 28 28 29 29 30 31 31 31 32 32 33 33 33 34 34 35
33 33 33 33 32 31 30 30 29 29 28 28 28 28 27 27 27 27 28 28 28 29 29 29 30 30 31 32 32 32 33 33 33 34 34 35 35 36
32 32 31 31 30 29 29 29 28 28 28 28 28 27 27 27 27 27 28 28 29 29 29 30 30 31 32 33 33 34 34 34 34 35 35 36 37 37
31 31 30 29 29 29 28 28 28 28 28 28 28 28 28 28 28 28 28 29 29 30 30 31 31 32 33 34 35 35 35 35 36 36 37 37 38 38
30 30 29 29 28 28 28 27 28 28 28 28 28 28 28 29 29 29 30 30 30 31 31 32 33 34 34 35 35 35 36 36 37 37 37 38 38 38
29 29 29 29 28 28 28 28 28 28 28 28 28 29 29 30 30 30 31 32 32 32 33 33 34 35 35 35 36 36 37 37 37 37 38 38 38 38
30 30 29 29 29 28 28 28 29 29 29 29 29 30 30 31 31 32 32 33 33 34 34 35 35 35 36 36 36 37 37 37 37 37 38 39 39 38
30 30 30 30 29 29 29 29 29 30 30 30 31 31 31 32 32 33 33 34 34 35 35 36 36 36 36 37 37 37 38 38 38 38 38 38 38 38
30 31 31 31 31 31 30 30 31 31 31 32 32 32 33 33 33 34 34 35 35 36 36 37 37 37 37 37 38 38 38 38 38 38 38 38 38 38
31 31 32 32 32 32 32 32 32 32 33 33 33 33 33 34 35 35 35 36 36 37 37 37 37 37 37 37 38 38 38 37 37 38 38 38 38 38
31 31 31 32 32 32 32 33 34 34 34 34 34 34 34 35 36 36 37 37 37 37 38 38 38 38 38 38 37 38 39 38 37 38 38 37 38 38
31 31 32 32 33 33 34 34 34 35 35 35 35 36 36 37 37 38 38 38 38 39 39 39 39 39 39 38 38 38 39 39 38 38 38 37 37 36
33 33 33 33 34 34 35 35 35 35 36 36 37 37 38 38 38 39 39 39 39 40 40 40 40 40 39 39 39 39 39 39 39 39 39 38 36 35

GEFSNE_500_meanwind_102.txt.gz
Wind_Speed
47 47 47 47 47 48 48 48 48 47 46 45 45 44 44 43 42 41 40 39 38 37 36 34 33 31 30 29 28 27 25 24 23 23 22 22 21 21
47 47 47 48 47 48 48 47 47 47 46 44 44 43 43 42 42 41 40 39 37 36 35 33 32 31 29 28 27 26 24 24 23 22 22 22 21 21
50 49 48 48 48 47 47 47 47 46 45 44 43 42 41 41 41 40 39 38 36 35 34 32 30 29 28 27 26 25 24 23 23 22 22 22 22 21
49 48 47 47 47 46 46 46 45 44 43 42 41 41 40 40 39 38 37 36 34 33 32 30 28 28 27 26 25 24 24 23 23 22 22 22 22 22
47 47 46 45 45 44 44 44 43 43 42 41 41 40 39 38 38 37 36 34 33 32 30 29 28 27 26 25 25 24 24 23 23 23 23 22 22 23
46 45 45 44 43 42 42 42 42 41 41 40 39 38 38 38 37 36 34 32 31 31 29 28 27 26 25 25 24 24 23 23 23 23 23 23 23 23
44 44 43 42 41 41 41 41 40 40 39 38 37 37 37 36 35 33 32 31 30 29 27 26 26 25 25 25 24 24 24 23 23 23 23 23 24 24
42 41 40 40 40 40 40 40 40 39 38 37 36 35 34 33 32 32 31 29 28 27 26 26 26 26 25 25 25 24 24 24 24 24 24 25 25 25
40 40 40 40 40 40 39 39 38 37 36 35 34 33 32 32 31 30 29 28 28 27 27 27 26 26 25 25 25 25 25 25 25 25 26 26 26 27
40 40 40 39 39 38 37 37 35 34 34 33 32 31 31 30 29 28 28 28 28 28 27 27 26 26 26 25 25 25 25 26 27 27 27 27 28 28
39 39 38 38 37 36 35 34 33 32 31 31 30 30 29 29 28 28 27 27 27 27 27 26 26 26 26 26 26 26 26 27 27 28 28 28 29 29
37 37 37 36 35 34 33 32 31 31 31 30 30 29 28 28 28 27 27 27 27 27 27 27 27 27 27 27 27 27 27 28 28 28 29 29 29 30
36 36 35 34 33 32 32 31 31 30 30 29 28 28 27 27 27 27 27 27 27 27 27 27 27 27 27 28 28 28 28 29 29 29 30 30 30 31
35 35 34 33 33 32 32 31 30 29 29 28 28 27 27 27 27 27 27 27 27 27 27 27 28 28 28 28 29 29 30 30 30 31 31 31 31 32
34 34 33 33 32 32 31 30 30 29 28 28 28 28 27 27 27 27 27 27 27 28 28 28 28 29 29 30 30 31 31 31 31 32 32 32 33 33
33 33 33 33 32 31 31 30 30 29 29 29 29 28 28 28 28 28 28 28 28 29 29 29 29 30 30 31 31 32 32 32 32 33 33 34 34 34
32 32 32 32 31 31 30 30 30 29 29 29 29 29 29 29 29 29 29 29 29 29 30 30 30 31 31 32 32 32 33 33 33 33 34 35 35 35
31 31 31 30 30 30 30 30 30 30 30 30 30 30 30 30 30 30 30 30 30 31 31 31 31 32 32 33 33 33 34 34 34 35 35 35 36 35
31 31 30 30 30 30 30 30 30 30 30 31 31 31 31 31 31 31 31 32 32 32 32 33 32 32 33 34 34 34 35 35 35 36 36 36 36 36
30 30 30 30 31 31 31 31 31 31 31 31 32 32 32 32 32 33 33 33 33 33 34 34 34 34 34 34 35 36 36 36 36 36 36 36 36 36
31 31 31 31 32 32 32 32 32 32 32 32 33 33 33 33 34 34 34 34 34 34 35 35 35 35 35 35 36 37 37 37 37 37 37 36 36 37
32 32 33 33 33 33 33 33 33 33 33 33 34 34 34 34 35 35 35 35 35 35 36 36 37 37 37 37 37 38 39 39 38 38 37 37 37 37
32 32 33 33 33 33 33 33 33 34 34 35 35 35 35 35 36 36 36 36 37 37 37 38 38 39 39 39 39 39 40 40 39 39 38 38 37 37

GEFSNE_500_meanwind_108.txt.gz
Wind_Speed
45 45 45 45 45 46 46 46 45 44 44 45 45 45 45 44 44 43 42 41 40 40 38 37 36 35 33 32 31 30 29 28 28 27 25 24 23 23
46 46 45 46 46 45 45 45 45 45 45 44 44 44 43 43 43 42 41 40 39 38 37 36 35 33 32 31 30 29 29 28 27 25 24 24 23 23
47 47 45 44 44 45 45 45 44 44 44 43 42 42 42 42 42 41 40 39 38 37 36 34 33 32 31 30 29 29 27 26 25 24 24 24 23 23
45 45 44 44 44 44 44 44 44 43 42 42 41 40 41 40 40 38 37 37 36 35 34 33 32 31 30 29 28 27 26 25 24 24 24 23 23 23
44 44 44 43 43 43 43 42 42 41 41 40 39 39 39 38 37 37 36 35 35 34 33 32 30 30 29 28 28 26 25 25 24 23 23 23 23 23
42 42 42 41 41 41 41 41 40 39 39 38 38 37 37 37 36 36 35 34 34 33 31 30 29 29 28 27 26 25 24 24 24 23 23 23 23 23
41 41 40 40 40 40 40 40 39 39 38 37 36 36 37 36 35 34 33 32 32 31 30 29 29 28 27 26 25 24 24 24 24 24 23 23 23 23
41 40 39 39 39 38 38 38 38 37 37 36 36 36 35 34 33 32 31 31 30 29 29 28 27 27 26 25 24 23 23 24 24 23 23 23 23 23
40 38 37 37 37 38 37 37 37 37 36 36 35 34 33 32 32 31 30 29 28 27 27 27 26 25 24 24 24 24 24 24 24 24 23 23 23 24
38 38 37 37 37 37 37 37 36 36 35 34 33 33 32 31 30 29 28 28 27 26 26 26 25 24 24 24 24 24 24 24 24 24 24 24 24 24
37 37 37 36 36 36 35 35 34 34 33 32 31 31 30 29 29 28 27 27 26 26 25 25 24 24 23 24 24 24 25 25 25 24 24 24 25 25
37 37 36 36 35 35 35 34 33 33 32 31 31 30 30 29 28 28 27 27 26 26 25 25 24 24 24 24 24 24 25 25 25 25 25 25 26 26
36 36 35 35 35 35 34 33 33 32 31 31 30 30 29 29 28 28 27 26 26 26 25 25 25 24 24 24 24 25 25 25 26 26 26 26 27 27
35 35 34 34 34 33 33 32 32 31 30 30 29 29 28 28 28 27 27 27 26 26 26 25 25 25 25 25 25 25 25 26 26 27 27 28 28 28
34 34 33 33 32 32 32 31 31 30 30 29 29 28 28 28 27 27 27 27 27 27 26 26 26 26 26 26 26 26 26 27 27 28 28 29 29 30
33 32 32 31 31 31 31 31 31 30 30 30 29 29 29 29 28 27 27 27 27 27 27 27 27 27 27 26 26 27 27 28 29 29 30 30 30 31
31 31 31 31 31 31 31 31 31 30 30 29 29 28 28 28 28 28 28 28 28 28 28 28 28 28 28 28 28 28 29 29 30 31 31 31 32 32
31 31 31 31 31 31 30 30 30 30 30 29 28 29 29 29 29 29 29 29 29 29 29 29 29 29 29 29 30 30 30 31 31 31 32 32 33 33
31 31 31 31 30 30 30 30 29 29 30 30 29 29 30 30 30 30 30 30 30 30 30 30 30 30 30 31 31 31 31 31 32 32 32 33 33 34
31 31 31 31 31 31 31 31 30 30 30 31 31 31 31 31 31 31 31 31 31 31 31 31 32 32 32 32 32 32 32 32 32 33 33 33 34 35
31 31 31 31 31 31 31 31 31 31 31 31 32 32 32 32 32 33 33 33 33 32 33 33 33 33 33 33 33 34 34 34 34 34 34 35 35 36
32 32 31 31 31 31 31 31 31 31 31 32 32 32 32 33 33 33 34 34 34 34 34 34 34 34 34 35 35 36 36 36 36 36 36 36 37 37
32 32 32 32 32 32 32 32 32 32 32 32 32 32 33 33 34 34 34 35 35 35 35 35 36 36 36 36 37 37 38 38 38 38 38 39 39 39

GEFSNE_500_meanwind_114.txt.gz
Wind_Speed
49 48 46 46 46 45 45 45 44 43 42 41 42 42 41 40 40 40 41 41 41 41 40 39 39 38 37 36 35 34 33 32 30 29 27 26 26 25
48 48 48 46 45 46 47 46 44 44 42 42 41 40 40 39 39 40 41 40 40 40 39 38 37 36 35 35 34 33 32 31 29 27 26 25 25 24
49 48 47 46 45 45 44 44 43 42 42 41 40 40 39 39 39 40 40 39 39 38 37 37 36 34 34 34 33 32 31 28 27 26 25 24 23 23
46 47 46 46 45 44 44 43 43 43 42 40 40 40 40 39 39 39 39 38 37 36 35 35 34 34 33 33 32 30 28 27 26 25 25 24 23 23
47 47 47 47 45 45 45 44 43 42 41 40 39 39 39 39 38 38 38 37 36 35 34 33 33 33 33 32 30 29 28 26 26 26 24 24 23 23
46 46 47 46 45 44 44 42 40 39 38 38 39 39 38 38 38 37 36 35 35 34 34 33 33 32 32 31 29 28 26 26 26 25 24 23 23 22
44 44 45 46 45 44 42 40 39 39 38 37 38 38 37 37 36 36 35 34 34 33 33 33 32 32 31 29 28 26 26 26 25 24 23 23 22 22
42 42 42 42 42 41 39 37 36 37 36 37 37 37 36 36 35 35 34 34 33 33 32 32 31 30 29 28 27 26 25 25 24 23 22 22 22 21
39 39 39 39 39 38 37 36 36 35 35 36 36 36 35 35 34 34 34 33 32 32 31 30 29 28 27 26 26 25 24 23 22 22 22 22 22 22
37 37 37 37 36 36 36 36 35 35 35 35 36 35 35 34 34 34 33 32 31 30 29 29 28 27 26 25 24 23 23 22 22 21 21 21 22 22
36 36 36 36 35 35 34 35 35 35 35 35 35 35 34 34 33 33 32 31 30 29 29 28 27 26 25 24 23 23 22 22 21 21 21 22 23 22
34 35 34 34 34 34 34 34 34 34 34 34 34 33 33 33 33 32 31 30 29 29 28 27 26 25 24 24 23 23 23 22 22 22 22 22 22 23
33 33 33 33 34 34 34 34 34 34 34 34 34 33 32 32 32 31 30 29 29 28 28 26 26 25 24 24 23 23 22 23 23 23 23 23 23 24
34 33 33 33 33 34 34 34 34 34 34 33 33 32 32 31 31 30 30 29 28 27 26 26 26 25 25 24 23 23 23 23 24 24 24 24 24 24
33 33 33 33 34 34 34 34 34 33 32 32 31 31 31 30 30 29 28 28 27 26 26 26 26 26 25 25 24 24 24 24 24 24 24 24 25 25
32 33 33 33 33 33 33 32 32 32 31 30 30 30 30 29 29 28 28 27 27 27 26 26 26 26 25 25 25 25 25 25 25 25 25 26 26 26
31 32 32 32 32 32 31 31 31 31 30 30 30 30 29 29 29 28 28 27 27 27 26 26 26 26 26 26 26 26 26 26 26 26 27 27 27 27
31 31 31 31 31 31 31 31 31 31 30 29 30 30 30 30 29 29 28 28 27 27 27 27 27 27 27 27 28 28 28 28 28 28 28 28 29 29
30 30 31 31 31 31 31 31 31 31 30 30 30 30 30 29 29 29 28 28 28 28 28 28 28 28 28 28 28 28 29 29 29 29 30 30 30 30
31 32 32 31 31 31 31 31 31 30 30 30 30 29 29 29 29 29 29 29 29 29 29 29 29 29 29 29 29 29 30 30 30 31 31 31 31 31
31 31 31 31 31 31 31 30 30 30 30 30 30 30 30 30 30 30 30 30 30 30 30 30 31 31 30 30 30 31 32 32 32 32 32 32 32 33
30 30 31 31 31 31 31 30 30 30 30 30 30 30 30 30 30 30 30 30 31 31 31 31 31 31 31 31 32 33 33 33 33 33 33 33 34 34
30 30 31 31 31 30 30 30 30 30 30 30 30 30 30 30 30 30 30 31 31 31 31 32 32 33 33 33 33 34 34 34 34 34 34 35 35 35

GEFSNE_500_meanwind_120.txt.gz
Wind_Speed
51 52 52 51 50 50 49 47 47 47 47 47 47 47 47 46 45 44 42 41 41 41 40 39 39 40 39 38 38 37 36 34 32 31 30 28 27 27
50 51 50 50 50 50 49 49 49 50 48 48 47 46 46 45 44 42 41 41 41 40 40 39 39 39 38 37 36 35 34 32 31 30 29 27 26 25
48 49 48 47 49 49 50 50 49 48 47 47 47 46 45 43 42 41 41 40 40 40 39 39 38 38 36 36 35 33 32 31 30 29 28 26 25 24
48 48 48 48 49 49 49 49 48 47 46 44 44 43 43 41 41 41 40 39 39 38 39 38 37 36 35 34 33 32 31 30 29 28 27 26 24 24
47 46 46 46 47 46 45 45 44 44 43 42 41 40 40 41 41 40 40 40 39 38 37 36 36 34 33 32 32 31 30 29 28 28 26 25 25 23
47 47 46 45 44 43 43 42 42 42 41 40 40 40 41 41 41 41 40 39 37 37 36 35 34 33 32 32 31 30 29 28 27 27 26 25 24 23
47 47 45 43 42 41 40 41 41 40 39 39 39 40 41 40 39 38 37 35 36 35 35 34 33 32 32 31 30 29 27 27 26 26 25 25 24 22
44 43 43 42 41 40 40 39 39 38 39 39 39 39 39 39 39 36 35 35 35 34 34 33 33 32 31 30 29 28 27 26 26 26 25 24 23 22
41 40 40 40 39 39 39 38 38 39 39 38 37 37 37 37 37 36 35 35 34 34 33 33 32 31 30 29 28 27 27 26 25 25 25 24 23 22
37 37 37 37 38 37 38 38 36 37 36 36 36 36 36 36 36 36 35 35 34 34 33 32 31 30 29 28 27 27 26 26 25 25 24 23 22 22
35 35 35 34 35 36 36 36 36 37 36 35 35 36 36 35 34 34 33 34 33 33 32 31 29 29 28 28 27 26 26 25 25 24 23 22 21 21
34 35 35 35 35 36 36 35 36 36 36 36 35 35 35 34 33 33 33 33 32 31 31 30 29 29 28 27 27 26 26 25 24 23 23 22 22 22
33 34 35 36 36 36 36 36 36 36 36 35 34 34 34 33 33 33 33 32 31 31 30 30 29 28 28 27 27 27 26 25 24 24 23 23 22 22
32 33 34 35 36 37 37 37 36 35 35 33 33 33 33 32 32 33 32 32 31 30 30 29 29 28 28 27 27 27 26 25 25 24 23 23 23 23
32 33 34 34 34 35 34 34 34 33 32 31 32 32 32 32 32 31 31 31 31 30 29 29 28 28 28 27 27 27 26 25 25 25 24 23 23 24
31 32 33 33 33 33 32 32 32 31 31 30 31 31 31 32 31 31 30 30 30 29 29 28 28 28 28 27 27 27 26 26 26 25 25 25 25 25
29 30 31 31 31 31 31 30 30 31 31 31 31 31 31 31 31 30 29 29 29 29 29 29 28 28 28 27 27 27 27 27 26 26 25 25 25 26
28 28 28 28 28 29 29 29 29 30 31 32 31 31 31 31 30 30 29 29 29 29 29 28 28 28 28 28 27 27 26 26 26 26 27 27 27 27
27 28 27 27 27 27 28 29 29 30 30 31 31 31 31 30 30 30 29 29 29 29 29 29 28 28 28 28 28 27 27 27 27 27 28 28 29 29
26 26 26 26 27 28 29 29 29 29 30 30 30 30 30 30 29 29 29 30 30 29 29 29 29 29 28 28 28 28 28 28 28 28 29 29 30 30
25 26 27 27 28 29 30 30 29 29 29 29 29 30 30 30 30 30 30 30 30 30 30 30 30 29 29 29 29 29 29 29 29 29 30 30 31 31
25 26 27 28 28 29 30 30 29 29 29 29 29 29 30 30 30 30 29 29 30 30 30 30 29 29 29 29 29 30 30 30 30 31 31 31 32 32
26 26 27 27 28 28 29 30 30 30 30 30 30 30 30 30 30 30 30 30 30 30 30 30 30 30 30 29 29 30 31 31 31 32 32 32 33 33

GEFSNE_500_meanwind_126.txt.gz
Wind_Speed
48 48 48 48 49 49 50 51 51 51 50 49 50 49 48 47 45 44 43 41 41 42 41 40 40 41 40 39 37 36 36 35 35 35 33 32 30 29
47 47 47 48 48 49 50 51 51 51 50 49 49 47 46 45 43 42 41 40 40 40 40 39 39 40 39 38 36 35 35 34 34 33 32 30 29 27
46 47 48 49 50 50 50 49 48 48 48 47 46 44 42 42 41 41 41 40 39 39 39 39 39 38 38 37 35 35 34 33 32 31 30 29 27 26
47 48 50 50 50 51 49 48 48 48 48 46 45 43 41 40 39 40 40 39 39 38 37 37 38 37 36 35 34 34 33 32 30 29 28 26 25 24
48 49 50 50 51 48 47 48 47 47 46 45 43 42 41 40 39 39 38 38 37 36 35 35 36 36 35 34 34 33 31 30 29 28 27 26 25 24
47 48 48 48 46 45 45 46 45 44 43 42 41 41 40 38 38 36 36 35 35 35 34 35 35 34 34 33 33 31 30 29 28 27 26 25 24 23
45 46 47 46 46 45 45 45 43 42 42 41 41 40 39 38 37 35 35 34 34 34 34 34 34 33 32 32 31 30 29 28 27 26 25 24 23 22
41 42 44 45 45 45 45 44 43 43 42 42 41 39 38 38 36 34 34 33 34 34 34 33 32 32 31 30 30 29 28 27 26 25 24 23 23 22
41 41 40 41 42 43 41 40 40 40 41 41 40 38 37 35 35 34 33 32 32 33 33 31 30 30 30 29 29 28 27 26 25 24 23 22 22 21
39 39 39 39 40 40 40 39 38 37 37 38 37 36 36 35 33 32 32 32 31 30 30 29 28 29 29 28 27 27 26 25 25 25 24 23 22 22
36 37 37 38 39 39 39 39 37 36 35 33 33 33 34 33 33 33 32 31 30 30 30 29 28 28 28 28 28 26 26 25 24 24 24 23 23 22
35 35 36 36 37 37 37 36 36 35 35 34 33 32 32 32 31 31 30 30 30 30 30 29 28 28 28 28 27 26 25 24 23 23 23 23 23 22
33 34 34 33 34 34 34 34 34 33 33 33 33 32 31 31 31 30 30 30 30 30 30 29 28 28 28 27 26 26 25 24 24 23 23 23 23 23
33 33 33 31 31 31 31 30 30 30 30 31 31 31 30 30 31 31 32 33 32 31 30 29 29 28 28 27 26 25 25 24 24 24 24 24 24 24
34 33 32 31 30 30 29 29 29 29 30 30 30 30 30 30 30 30 31 32 31 30 29 28 28 28 27 26 26 26 25 24 24 24 25 25 24 24
34 33 31 31 30 29 28 28 29 29 28 28 29 29 30 30 29 29 30 30 30 29 28 28 28 27 26 26 26 26 25 25 24 25 25 25 25 24
33 32 31 31 31 30 29 29 28 27 27 27 28 28 28 28 28 28 28 29 29 29 28 28 27 26 26 26 26 26 26 25 25 24 24 25 26 25
33 32 31 30 30 30 29 28 28 27 27 27 27 27 27 27 27 27 27 28 28 28 28 27 27 27 26 26 26 26 26 26 25 25 25 25 26 26
33 31 31 30 29 28 27 27 26 27 27 27 27 27 27 27 27 27 27 27 27 27 27 27 27 27 27 27 27 27 26 26 26 26 26 26 26 26
32 31 30 28 27 26 26 26 27 27 27 27 27 27 27 27 27 27 26 26 27 27 28 27 27 27 26 27 27 27 27 27 27 27 27 27 28 28
33 32 30 28 26 26 26 26 26 26 26 26 26 26 26 27 27 27 26 26 26 27 27 27 27 27 27 27 27 28 28 28 28 28 28 28 29 28
32 31 30 28 27 26 26 26 25 26 25 25 25 26 26 27 27 27 27 26 27 27 27 27 27 27 28 28 28 28 28 28 28 29 29 29 29 29
31 31 30 28 27 26 26 26 26 26 26 26 26 26 26 27 27 27 27 27 27 28 28 28 28 28 28 28 28 28 28 28 28 29 30 30 30 30

GEFSNE_500_meanwind_132.txt.gz
Wind_Speed
45 45 45 44 45 46 46 47 48 49 49 49 49 48 48 48 48 47 47 46 45 44 42 40 40 39 37 37 35 34 34 33 32 30 29 29 29 29
45 45 44 44 45 46 47 48 50 51 50 49 49 49 49 48 47 47 47 46 44 41 40 39 38 38 37 36 36 34 33 32 33 32 30 30 30 29
43 44 45 45 46 47 49 50 50 51 50 48 48 49 49 48 48 47 47 46 43 41 40 38 37 36 36 36 35 34 33 32 33 32 30 30 30 29
41 42 44 45 45 46 48 49 50 50 50 48 48 48 48 47 46 45 43 41 40 39 38 37 36 36 35 36 35 34 33 32 31 30 30 29 28 26
39 40 42 44 45 46 47 48 48 48 48 48 47 46 46 45 43 42 40 39 38 37 37 36 35 35 34 35 36 35 34 32 30 29 29 28 28 26
39 40 42 42 43 44 45 46 46 46 46 46 45 43 42 42 39 37 37 37 36 37 37 35 34 33 33 34 35 34 33 31 29 29 29 28 27 25
39 40 41 41 42 44 44 43 43 43 44 45 44 42 40 38 36 35 34 35 35 35 36 34 33 33 32 33 34 33 32 29 28 27 27 27 26 25
38 39 40 40 41 41 42 41 41 41 42 42 42 40 37 35 33 33 35 35 35 34 34 33 33 33 34 34 33 31 29 28 28 28 27 27 25 25
40 39 40 40 40 40 40 39 39 39 40 40 39 37 36 34 33 34 34 35 34 33 33 32 33 34 34 33 31 29 29 28 27 28 28 26 25 25
40 40 40 40 40 40 40 39 39 38 38 37 35 35 36 34 32 32 32 33 32 31 30 31 32 32 31 31 30 29 28 28 28 28 28 27 26 26
37 38 39 38 38 38 37 37 36 35 35 34 33 33 33 32 31 31 31 31 31 30 28 28 28 29 29 29 28 28 27 27 26 27 27 27 26 25
35 36 37 37 38 37 35 35 35 35 34 33 32 31 31 32 31 30 29 28 28 29 27 26 26 27 27 27 27 27 26 26 26 26 26 25 25 25
34 35 36 37 37 36 35 34 33 33 33 32 31 31 31 31 31 30 29 28 28 28 27 26 26 26 25 25 26 26 25 25 25 25 25 25 25 24
35 35 36 37 37 36 35 34 33 32 32 32 31 31 30 30 29 29 28 27 26 26 26 26 26 25 25 26 26 26 25 25 25 25 25 25 25 24
36 36 36 36 36 35 33 33 32 32 32 31 31 31 31 30 29 29 28 27 26 25 25 25 25 25 25 25 25 26 26 25 25 26 26 26 26 25
37 36 36 36 35 34 32 32 32 31 30 30 29 29 29 28 28 27 27 27 27 27 26 26 26 25 25 25 26 26 26 25 25 26 27 27 27 26
36 35 35 35 34 33 31 31 31 31 30 30 29 29 28 27 26 25 25 26 26 26 27 26 26 26 25 26 26 27 26 26 25 26 27 28 29 28
35 34 34 34 34 33 32 31 31 31 31 31 30 29 27 27 26 26 25 25 26 25 26 27 27 26 26 26 27 27 27 27 27 28 28 29 29 28
34 33 33 33 34 33 33 32 31 30 30 30 29 28 27 26 26 27 26 26 25 25 26 27 27 27 26 27 27 28 28 28 28 28 29 29 29 29
34 33 33 33 33 33 32 31 30 29 29 29 29 28 28 27 27 27 27 26 26 26 26 27 27 28 27 27 28 28 30 29 29 29 29 30 30 30
34 33 33 32 32 32 31 31 30 29 28 28 28 27 27 27 27 27 27 27 26 26 27 27 28 28 28 28 28 29 29 29 29 30 30 30 30 30
35 34 33 33 32 31 31 30 29 29 28 27 27 27 26 26 27 27 27 27 26 26 26 27 28 28 28 28 28 29 29 29 30 30 31 31 31 31
36 35 34 33 32 31 30 29 28 28 27 27 27 27 27 27 27 27 27 27 27 27 27 27 28 28 28 28 28 29 29 30 30 31 31 31 31 31

GEFSNE_500_meanwind_138.txt.gz
Wind_Speed
40 40 42 43 43 44 45 46 46 47 47 47 48 49 50 50 49 49 49 49 48 47 46 45 44 43 42 40 39 38 37 35 32 30 30 30 30 29
39 40 41 42 43 44 45 46 47 47 47 47 48 49 50 50 49 48 49 49 48 47 46 45 43 41 40 39 37 36 35 34 32 30 30 31 30 30
39 40 42 42 44 45 45 46 46 47 47 46 47 48 48 48 48 48 47 46 46 46 45 44 43 41 39 37 36 35 34 33 31 30 30 30 30 29
37 39 40 41 43 43 44 45 46 46 46 46 46 46 47 46 46 46 45 43 43 44 43 42 41 40 38 35 35 34 34 32 31 30 30 30 29 29
35 36 38 40 41 42 43 43 44 45 46 46 46 46 46 44 44 44 44 43 42 42 42 41 40 38 37 36 34 34 33 32 31 30 30 30 30 30
34 36 37 38 40 41 41 42 43 44 45 45 45 45 44 43 43 42 42 42 41 40 39 38 36 35 35 35 34 34 32 32 31 30 30 31 31 30
35 37 38 38 39 39 40 41 43 43 43 43 44 44 43 43 43 42 42 41 40 39 37 36 35 34 34 33 32 31 31 30 30 29 29 30 31 30
36 37 38 39 39 41 41 42 42 42 42 43 43 42 42 41 41 41 40 38 38 37 36 35 33 33 32 31 30 30 29 29 29 29 29 29 29 29
36 37 38 39 40 40 40 41 41 41 42 42 42 40 39 39 39 38 37 38 36 34 33 32 31 30 30 28 28 27 27 27 28 28 28 27 27 27
36 37 38 38 39 39 39 39 39 39 40 40 39 39 38 37 37 36 36 35 33 31 29 28 27 26 28 28 26 25 25 26 27 27 27 26 26 26
37 38 37 36 36 37 37 37 38 38 38 38 38 37 37 37 37 35 34 34 31 29 27 27 26 26 26 27 27 25 24 25 26 26 25 25 26 27
36 36 35 34 34 35 36 37 38 38 38 39 38 37 37 37 36 35 33 31 30 28 26 25 25 25 25 24 24 24 24 23 23 24 24 25 26 27
36 36 35 35 35 35 36 37 37 38 38 39 38 37 37 36 35 34 32 30 28 27 26 25 24 24 23 23 23 24 24 23 24 24 24 25 26 27
36 36 37 37 37 36 37 37 37 37 37 37 36 36 35 34 34 33 31 29 28 27 26 25 24 23 22 22 22 23 24 24 24 24 24 24 25 26
36 37 37 37 37 37 37 36 36 37 36 35 35 34 34 34 33 31 30 28 27 26 25 24 23 22 22 22 22 24 25 25 25 25 24 24 25 27
37 37 37 37 37 36 36 36 36 35 35 35 35 34 33 32 31 29 29 28 27 26 25 25 24 23 22 22 23 24 25 26 26 25 25 25 25 27
37 37 36 36 36 36 36 35 36 35 35 34 34 33 32 31 30 29 28 27 27 26 26 25 26 25 25 24 24 25 25 26 26 26 26 26 26 27
37 36 36 35 35 35 35 35 35 35 34 34 33 32 31 30 29 28 27 26 26 26 26 26 25 25 25 26 25 25 25 26 27 27 27 26 27 27
36 36 35 35 35 35 35 35 34 34 33 32 32 31 30 29 28 27 27 26 25 25 25 26 25 25 25 25 26 26 25 25 26 27 27 27 28 29
36 35 35 35 35 35 36 36 35 34 33 32 30 29 29 28 28 27 26 26 25 25 25 25 25 25 25 25 25 26 26 26 26 26 26 27 28 29
36 35 35 35 35 36 36 36 35 34 33 31 30 29 28 27 27 27 26 25 25 25 25 26 26 26 26 25 25 26 26 26 26 26 27 28 29 29
37 37 36 36 36 36 36 35 34 33 32 31 30 29 28 28 27 26 25 25 25 25 25 25 26 26 25 25 25 26 26 26 26 26 27 28 29 30
38 38 38 37 37 37 36 35 34 33 32 31 30 30 29 28 27 26 24 24 24 24 24 25 25 25 25 25 25 26 27 26 26 27 28 28 29 29

GEFSNE_500_meanwind_144.txt.gz
Wind_Speed
37 38 39 40 39 40 41 42 42 42 42 43 44 45 46 46 47 47 48 49 49 50 50 49 48 48 48 48 49 49 46 43 42 40 38 37 35 35
36 37 37 38 39 39 40 41 41 42 43 44 44 45 47 47 48 48 48 49 50 51 51 50 49 47 48 48 47 47 44 42 41 39 37 36 34 34
34 35 36 37 38 38 39 39 41 43 44 43 45 46 46 47 48 48 49 49 50 51 50 49 48 48 47 47 47 45 43 41 39 38 36 35 35 35
34 34 35 36 37 38 39 40 42 44 44 43 44 45 46 47 48 48 48 47 49 49 48 48 46 46 46 45 44 42 40 39 37 35 35 35 34 34
33 34 34 35 37 38 39 41 42 43 44 44 44 45 46 48 47 47 47 48 47 46 46 46 46 44 44 40 39 37 37 36 34 34 33 33 34 34
33 33 34 35 37 39 41 42 42 43 43 44 44 45 45 46 46 45 45 45 45 45 45 44 44 41 39 37 35 35 34 33 33 33 33 33 33 33
31 32 33 35 37 39 40 42 42 43 43 44 44 44 44 43 44 44 43 42 43 43 43 42 41 39 36 34 33 32 32 32 34 34 33 32 31 31
30 31 32 34 35 37 39 40 41 42 42 43 43 44 43 42 42 42 42 42 41 41 41 40 38 36 34 32 33 33 32 32 32 33 32 30 31 31
28 29 31 32 34 35 36 38 39 40 41 42 43 42 42 41 41 41 41 41 40 38 38 37 36 33 31 31 30 29 29 29 29 30 30 29 29 29
29 30 32 33 35 36 37 37 37 38 39 39 39 40 41 41 40 39 38 37 37 37 37 36 34 32 30 28 28 27 26 26 27 28 29 29 29 29
30 31 33 34 35 36 37 37 37 38 38 38 37 37 37 37 37 36 36 36 36 35 34 33 31 30 28 26 26 26 26 27 26 27 28 28 29 28
31 32 34 35 36 37 37 37 37 37 38 37 38 38 37 37 37 36 36 36 36 34 32 32 30 29 27 26 26 26 26 25 26 27 27 27 28 29
31 33 34 35 36 37 37 37 38 37 37 37 37 37 37 36 36 35 35 35 34 33 32 30 29 27 26 25 25 24 24 25 25 26 26 28 28 29
33 34 35 36 37 37 36 37 38 37 37 37 37 37 36 35 34 34 35 34 33 31 30 29 28 27 26 24 23 23 24 24 25 25 26 27 28 28
34 35 36 37 37 37 37 37 38 37 37 37 36 36 35 35 34 34 34 32 31 30 29 27 27 26 25 24 24 24 24 24 25 26 27 27 28 28
35 36 37 37 37 37 37 37 36 36 35 35 36 36 35 35 34 33 32 30 29 28 28 25 25 25 24 24 24 24 24 24 26 27 27 28 27 28
36 36 37 37 38 38 37 36 35 35 35 35 35 36 35 34 33 32 30 29 28 27 26 25 23 23 23 23 24 24 23 24 26 27 28 29 29 28
37 37 37 37 37 37 36 35 35 35 35 35 35 35 34 33 32 31 30 29 28 26 25 25 23 23 23 23 24 24 23 24 26 28 29 29 30 30
38 38 37 37 37 36 36 35 35 35 35 35 34 34 33 31 30 29 28 27 26 25 24 24 23 23 23 23 24 24 24 25 26 27 28 29 30 30
38 38 38 38 37 36 36 35 35 35 35 35 34 33 32 30 29 28 27 26 25 24 24 24 23 23 23 22 23 24 25 25 26 26 27 28 30 31
38 38 38 38 38 37 36 35 35 35 35 35 34 33 31 30 28 27 27 26 25 25 24 23 23 23 23 24 23 24 25 26 27 27 27 28 30 31
39 38 38 38 38 37 36 35 35 35 35 35 33 32 31 30 29 27 26 26 25 25 24 24 23 23 23 23 23 23 24 26 27 28 28 29 30 31
39 39 39 39 38 37 37 37 37 36 35 34 33 32 31 30 29 28 27 26 26 25 24 24 23 23 23 23 23 23 24 26 27 27 28 29 30 30

GEFSNE_500_meanwind_150.txt.gz
Wind_Speed
40 40 41 41 42 42 43 43 43 43 42 42 42 43 44 44 45 46 47 48 49 49 50 50 50 50 50 51 51 50 50 50 48 45 43 42 39 38
37 38 39 40 40 41 42 42 42 42 41 41 41 42 43 45 46 46 48 50 50 50 50 51 50 49 49 49 50 49 48 47 44 42 41 41 39 38
36 36 38 39 39 40 41 40 41 41 41 40 41 42 43 44 45 47 49 49 49 49 50 50 50 49 48 49 49 47 45 43 41 39 39 39 38 36
35 36 36 36 37 37 38 38 39 38 39 40 41 42 43 45 46 47 48 48 49 49 49 49 49 48 48 47 46 44 42 40 38 37 38 38 37 36
34 34 35 35 35 36 37 37 37 38 39 40 40 42 43 44 45 47 47 47 48 48 48 48 48 47 46 45 45 42 41 39 38 36 36 35 35 35
33 33 33 34 35 36 36 36 36 38 39 40 40 41 43 44 44 45 46 46 47 47 47 47 45 45 45 44 42 40 39 39 37 35 34 34 34 34
31 32 32 33 33 34 35 36 37 38 39 39 40 40 41 42 43 44 45 45 46 46 45 44 43 43 43 42 40 39 38 37 37 35 34 32 32 32
30 30 30 31 32 33 34 35 36 38 38 39 39 40 40 41 42 43 43 43 44 44 44 42 41 40 40 40 39 37 36 35 34 32 31 30 30 30
29 29 30 30 32 33 33 34 36 36 38 39 40 40 40 41 42 42 43 43 43 42 42 41 40 39 38 38 37 34 33 32 30 30 29 29 28 28
29 30 30 30 31 32 33 34 35 36 38 40 41 41 41 41 42 42 42 41 42 41 41 40 39 38 37 35 34 32 30 29 29 28 28 27 27 26
29 30 30 31 32 33 34 35 35 37 39 39 40 41 41 41 41 41 41 40 40 40 39 39 38 37 35 34 33 32 30 27 27 27 26 26 26 26
30 30 31 32 32 34 35 36 37 38 39 40 40 40 41 41 41 41 41 40 40 39 38 38 36 35 32 30 31 31 29 27 27 27 26 26 26 26
30 31 33 33 34 34 36 37 37 38 39 39 40 40 40 40 40 40 40 40 39 38 37 36 35 33 31 29 28 27 27 27 27 26 26 26 26 26
31 32 33 34 35 35 36 38 38 39 39 39 40 40 39 39 38 38 38 38 37 37 36 34 33 32 31 29 28 27 25 24 25 25 26 26 26 27
33 34 34 35 36 37 37 38 38 39 39 39 39 39 38 37 36 36 36 36 35 35 34 33 33 32 31 29 27 25 24 23 23 23 24 25 26 26
34 35 36 36 36 37 37 38 38 38 39 39 39 38 37 36 36 35 35 35 34 33 33 32 32 31 30 28 26 24 22 21 20 20 22 22 23 24
35 36 36 36 37 37 38 38 38 38 39 39 39 38 37 36 35 35 35 34 33 32 31 32 32 30 28 26 24 22 21 19 19 19 19 20 21 21
36 37 37 37 38 38 38 39 39 39 39 39 38 37 36 36 35 34 34 34 33 32 31 30 29 29 27 25 23 20 19 19 19 19 18 18 19 20
37 38 38 38 39 39 39 39 39 39 39 38 38 37 36 35 34 33 33 33 32 31 30 29 28 28 26 23 22 20 19 19 19 19 19 20 20 21
38 38 38 39 39 39 40 39 39 39 39 38 38 37 36 35 34 34 33 33 32 31 30 29 27 26 25 22 20 19 18 19 19 20 20 20 21 22
39 39 39 40 40 40 40 40 40 40 40 39 38 37 36 35 35 34 33 33 32 30 29 27 26 25 24 22 21 20 18 18 19 21 21 21 22 23
40 40 40 40 40 40 40 40 40 40 40 39 38 37 36 35 34 33 32 31 30 29 28 27 26 24 24 22 21 21 20 19 19 21 22 22 23 24
39 40 39 39 40 39 39 39 39 39 39 38 37 36 36 35 34 32 31 30 29 28 27 26 25 24 23 22 22 22 22 21 20 21 22 22 22 24

GEFSNE_500_meanwind_156.txt.gz
Wind_Speed
38 38 39 39 39 40 40 41 41 41 42 42 42 42 42 42 43 43 44 44 45 45 45 45 46 47 47 47 48 49 48 47 47 46 46 45 44 43
39 39 39 38 38 39 39 39 40 40 40 40 40 41 41 41 42 42 43 44 45 45 46 46 47 47 48 49 49 48 47 45 44 44 44 44 44 43
39 39 39 39 39 39 39 38 39 40 39 38 39 40 40 41 41 42 42 43 44 45 46 47 47 47 48 49 49 47 46 44 44 44 44 43 42 41
38 38 38 39 39 39 39 39 39 39 39 38 38 38 39 40 40 41 42 43 44 45 46 47 48 48 49 50 49 48 46 44 42 42 41 41 41 40
37 37 37 37 38 37 37 38 38 38 37 37 37 38 38 39 40 41 42 43 44 45 45 46 48 48 49 49 48 46 45 43 42 41 40 40 40 39
34 34 34 34 35 36 36 37 37 37 37 37 38 38 37 39 40 41 43 44 45 46 46 46 47 48 48 47 45 44 43 42 41 40 39 39 38 38
33 33 33 34 35 36 36 36 36 37 37 37 38 38 39 40 40 41 42 44 45 45 46 46 47 46 45 45 44 43 42 40 39 38 38 37 36 36
34 34 34 35 35 35 36 36 36 36 37 37 37 38 39 40 41 41 43 44 44 44 44 44 44 44 42 41 41 40 39 38 37 37 36 36 35 34
32 33 33 34 34 35 35 35 35 36 36 37 38 38 39 40 41 42 43 43 43 42 42 41 41 41 40 39 39 39 37 37 36 35 34 33 32 32
31 32 32 33 33 34 34 34 35 36 36 37 38 38 39 40 40 41 42 42 42 41 41 40 41 40 40 39 38 37 36 35 35 35 33 31 30 29
31 31 32 33 34 34 34 34 35 36 37 38 38 38 39 40 41 41 41 41 40 39 39 39 39 39 38 38 37 36 36 35 34 33 31 29 27 27
30 31 32 33 33 33 33 33 34 35 36 37 38 39 39 40 41 41 41 40 39 38 38 38 38 37 37 36 36 35 34 33 31 29 28 26 25 25
31 31 32 33 33 34 34 35 36 37 37 38 38 39 39 40 40 40 39 39 38 38 37 38 37 37 36 34 33 33 32 31 30 28 26 26 25 24
32 33 33 34 34 34 35 35 36 37 37 38 38 39 39 39 39 39 39 38 38 37 38 38 37 36 35 33 32 31 30 30 28 27 26 25 24 23
33 34 34 34 34 35 36 36 36 37 38 38 38 38 38 39 39 39 39 38 38 38 37 37 37 35 34 32 32 30 29 28 27 25 25 25 24 23
34 34 35 35 35 35 36 36 36 37 38 38 37 38 38 38 38 39 38 37 37 37 37 37 36 35 33 32 31 29 28 27 26 25 24 24 24 24
34 34 35 35 35 34 35 36 36 37 37 37 37 37 37 37 37 37 37 36 36 36 35 36 35 34 33 32 30 28 27 26 25 24 24 24 23 24
34 35 35 35 35 35 36 36 36 36 36 37 37 37 36 36 36 36 36 36 35 35 35 34 34 33 31 30 29 28 26 25 24 24 24 24 23 22
34 35 35 35 35 36 36 36 36 36 36 36 36 36 36 36 35 35 35 35 34 33 33 33 32 31 30 29 29 28 26 24 24 23 23 22 21 21
35 35 35 35 35 35 35 36 36 36 36 36 36 36 36 36 35 34 34 34 33 32 32 31 30 29 29 29 28 27 25 23 22 22 21 21 20 19
36 36 36 36 36 36 36 36 36 36 36 36 36 35 35 35 34 34 33 33 32 31 31 30 29 28 28 27 26 25 24 24 22 21 20 20 19 19
36 37 36 36 36 36 35 35 35 36 36 36 35 35 35 34 34 34 33 32 32 31 30 30 29 28 28 27 26 24 24 24 23 21 20 20 20 19
37 37 37 36 36 36 35 35 36 36 36 35 35 35 35 34 33 33 33 32 31 31 30 30 29 28 27 26 25 24 23 23 23 22 21 21 21 20

GEFSNE_500_meanwind_162.txt.gz
Wind_Speed
40 41 41 41 41 41 41 41 41 41 39 38 38 38 39 39 39 39 40 40 41 42 42 42 43 43 42 42 42 43 43 43 44 44 44 45 44 44
41 41 41 40 40 40 40 40 41 41 40 39 39 39 39 39 39 39 40 41 42 42 42 42 42 41 41 41 42 43 43 44 45 46 46 46 46 45
40 40 40 40 40 40 41 41 41 41 40 39 39 40 39 39 39 39 40 40 40 40 40 41 41 41 41 42 42 43 44 45 45 46 46 46 46 45
39 39 39 39 40 40 40 40 40 39 39 39 39 40 40 40 40 40 40 39 39 39 40 40 40 41 42 42 43 44 44 46 46 46 47 47 47 45
39 39 38 38 38 38 39 39 39 39 39 39 39 39 39 39 39 40 40 39 39 39 40 41 41 42 43 44 44 44 45 45 45 46 46 46 45 44
38 38 39 39 39 39 39 39 38 38 38 38 38 39 39 39 39 39 39 38 39 40 41 41 41 42 43 44 45 45 45 45 46 45 45 44 43 43
38 38 38 39 39 38 38 38 38 37 37 38 37 38 38 38 38 38 38 39 40 40 41 41 42 43 44 44 44 43 43 43 43 43 42 41 41 40
37 37 37 38 37 37 37 37 38 37 37 37 37 37 37 37 38 38 38 39 40 41 42 42 43 43 44 43 43 43 43 43 41 41 40 39 39 38
36 36 36 36 37 37 37 37 37 37 37 37 37 36 36 37 38 38 38 40 41 42 42 42 42 42 42 42 42 42 42 42 40 40 39 38 38 36
35 35 36 36 37 37 37 37 38 38 37 37 36 36 37 37 38 38 39 40 41 41 41 40 40 41 41 41 41 41 41 41 40 39 38 37 36 34
34 35 36 36 36 37 37 37 37 37 37 37 37 37 37 38 39 39 40 40 40 40 40 40 40 40 40 40 40 40 39 39 39 38 36 35 33 32
35 35 36 36 36 37 37 37 36 36 36 37 37 37 37 37 38 39 40 40 40 39 39 39 39 39 39 38 39 39 39 38 38 36 35 33 31 30
35 35 36 36 36 36 37 36 36 36 37 36 37 37 38 38 39 39 40 40 40 39 39 39 39 39 39 37 37 38 38 37 37 35 34 32 29 27
35 35 35 36 35 36 36 36 36 36 36 36 37 37 38 39 39 40 40 40 40 40 39 39 39 39 38 37 37 37 37 37 36 34 32 30 28 26
35 35 35 35 35 35 36 36 36 36 36 36 37 37 38 38 39 39 39 39 39 40 40 39 39 38 38 38 37 36 35 35 34 32 30 28 27 26
35 35 35 34 34 35 35 35 36 36 36 36 36 37 37 38 38 39 39 38 38 39 39 38 38 37 37 37 36 35 34 33 31 30 28 27 26 24
35 36 35 34 34 34 35 36 36 36 36 36 36 36 36 37 37 38 37 37 37 37 37 37 37 37 36 35 34 33 32 31 30 28 27 26 25 25
35 35 34 34 34 34 35 36 36 36 36 36 36 36 36 36 36 36 36 36 36 35 35 35 35 35 34 33 33 32 31 29 28 27 26 26 25 24
34 34 34 34 34 34 35 35 36 36 36 36 36 36 35 35 35 35 35 35 34 34 34 34 34 33 32 32 32 32 31 29 27 27 26 25 24 24
34 34 34 34 34 34 35 35 35 36 36 35 35 34 34 33 34 34 34 34 33 33 33 34 33 33 32 32 32 31 30 29 27 25 24 24 23 24
34 34 34 35 35 35 35 36 35 35 34 34 34 33 33 33 33 33 33 33 33 33 33 34 33 33 32 32 30 29 28 28 26 24 23 23 22 22
34 34 34 35 35 36 36 35 35 34 34 33 33 33 33 33 33 33 33 33 33 33 33 33 33 32 32 30 29 27 26 26 25 24 23 22 22 21
33 33 34 34 34 34 35 34 34 33 33 33 33 33 33 33 33 33 33 33 33 33 33 32 32 31 30 29 28 26 25 25 24 24 23 23 22 21

GEFSNE_500_meanwind_168.txt.gz
Wind_Speed
40 39 39 40 40 40 40 40 40 40 40 40 40 40 41 41 40 40 41 41 41 41 41 40 41 41 40 39 39 40 40 40 41 41 41 41 42 42
40 40 40 40 40 41 42 42 41 41 40 39 40 40 40 40 40 40 40 40 40 41 41 41 41 40 40 40 40 40 40 40 40 41 41 43 44 44
41 41 41 42 42 42 42 42 42 41 40 39 40 40 40 40 39 40 40 40 40 40 40 40 40 40 40 40 39 40 41 41 41 42 42 43 43 44
41 41 42 43 43 43 43 43 43 42 41 40 39 39 39 39 39 39 39 40 40 39 40 40 40 40 40 40 40 40 41 41 41 42 42 42 43 44
40 41 41 42 42 43 43 43 43 42 42 41 40 40 40 39 39 39 39 39 39 39 39 40 40 40 40 40 40 41 42 42 42 42 42 43 44 44
38 39 39 40 40 41 42 42 42 42 41 41 41 41 41 41 40 40 39 40 40 39 40 40 40 39 39 40 41 41 42 42 42 43 44 45 45 44
37 38 38 39 39 39 40 40 41 41 42 42 42 41 41 41 40 40 40 40 40 40 39 40 40 40 40 40 41 41 42 42 43 44 45 45 45 45
37 37 37 38 38 38 38 39 39 40 40 41 41 41 41 41 40 40 40 40 40 40 40 40 41 41 41 41 41 42 43 43 44 44 45 45 44 44
37 37 37 37 37 37 37 38 38 38 39 40 40 40 41 41 41 40 41 40 39 40 40 40 41 41 41 42 42 43 43 43 43 44 44 44 43 42
37 37 37 37 37 38 38 38 38 39 39 40 39 39 39 40 40 40 40 39 40 40 40 40 40 40 41 41 42 43 44 44 44 44 44 43 42 41
38 38 38 37 38 38 38 38 39 40 40 40 39 40 40 40 39 39 39 39 40 40 39 39 40 41 41 41 42 43 43 44 43 43 43 41 40 39
38 38 38 38 39 39 40 40 40 40 41 41 41 42 41 41 41 40 40 40 40 39 39 40 40 41 40 40 41 42 42 42 42 42 40 39 38 37
39 39 39 40 40 41 41 40 40 40 40 41 41 42 42 41 41 40 41 41 40 40 40 40 40 41 41 40 40 41 41 41 41 40 38 38 36 36
40 40 40 41 41 41 41 41 41 41 41 41 41 41 41 41 40 40 40 40 40 40 40 40 40 40 40 40 39 39 39 39 39 38 37 37 35 34
41 42 41 41 41 41 41 41 40 40 40 40 40 40 40 40 40 39 39 39 39 39 39 39 39 39 39 38 37 37 38 38 38 38 37 36 36 35
41 41 41 41 41 41 41 41 40 40 40 40 40 39 39 39 38 38 38 38 38 37 37 37 37 37 37 36 36 36 36 36 37 37 36 36 35 33
41 41 41 41 41 41 41 41 40 40 39 39 38 38 38 38 37 37 37 37 37 37 36 36 36 36 36 35 35 35 35 35 35 34 33 32 30 29
41 40 40 40 40 40 40 40 40 39 38 37 37 37 36 36 36 36 36 36 35 35 35 35 35 34 34 34 34 34 33 33 33 32 31 30 29 29
41 40 39 39 39 39 39 39 38 37 37 36 36 35 34 34 34 34 34 34 34 34 34 34 33 33 32 32 33 33 33 33 32 31 30 29 29 29
39 39 38 38 37 37 37 36 36 35 35 34 33 33 32 33 33 33 33 34 34 33 33 33 33 32 32 32 32 32 33 32 31 30 29 28 28 27
38 38 38 37 36 35 34 34 34 33 32 32 32 31 32 32 32 33 33 33 33 33 32 32 32 32 33 33 32 31 32 31 30 30 29 27 26 25
35 35 35 35 34 33 32 32 31 31 31 30 30 30 30 31 31 31 31 32 32 32 32 32 32 33 33 32 31 31 30 30 29 29 28 26 25 24
33 33 33 33 32 32 31 31 30 29 28 28 29 29 30 30 30 30 31 31 31 31 31 31 32 32 32 31 30 30 29 28 28 27 26 25 24 23

GEFSNE_500_meanwind_174.txt.gz
Wind_Speed
36 37 38 39 40 40 41 41 41 40 40 41 42 42 42 42 42 42 42 42 43 43 42 42 42 42 40 40 40 40 39 39 39 39 40 39 40 40
37 38 38 39 39 40 40 41 41 41 41 41 41 42 42 42 42 42 43 43 43 43 43 42 42 41 40 40 40 39 39 39 40 40 39 39 39 40
39 39 39 39 39 40 40 41 42 42 42 42 42 42 42 42 42 42 42 42 42 42 42 41 41 41 41 41 40 39 38 38 38 38 39 40 39 39
40 39 39 39 39 40 40 40 41 42 42 41 41 41 41 41 41 42 41 41 42 41 41 41 41 41 41 41 40 39 38 38 38 39 40 40 40 40
40 40 40 39 39 40 40 41 41 42 42 42 41 41 41 41 41 41 41 41 41 41 41 41 41 41 41 40 40 39 38 38 39 40 40 40 40 41
40 40 40 40 40 40 40 41 41 41 41 42 42 42 42 42 42 41 41 41 40 41 41 41 41 41 41 40 40 39 39 39 40 40 40 40 41 41
41 40 40 40 40 40 40 40 41 41 42 42 43 43 43 43 43 42 42 42 41 41 41 41 41 41 40 40 40 40 40 41 41 40 40 41 41 42
42 41 41 40 40 40 40 41 42 42 43 43 42 42 42 42 42 42 42 42 42 41 41 41 41 40 40 40 40 41 41 41 41 41 41 42 42 42
43 42 42 42 42 42 42 42 42 43 43 43 42 41 42 42 42 42 42 42 42 42 42 41 41 41 41 40 40 40 40 41 41 42 42 43 44 44
44 44 44 44 44 43 43 43 43 43 43 42 42 42 42 42 43 43 43 43 42 42 42 41 41 41 41 40 40 40 40 40 41 42 43 44 44 44
45 45 44 44 44 44 43 42 42 42 43 43 42 42 42 43 43 43 44 44 44 43 43 42 41 41 41 40 40 40 41 41 42 42 42 42 42 42
45 45 45 45 45 44 43 43 42 42 42 42 42 42 43 43 43 44 44 44 44 43 42 42 42 41 40 40 40 40 41 41 42 42 42 42 42 41
47 46 46 46 46 45 44 44 43 43 43 42 43 43 43 43 44 44 44 44 44 43 43 42 42 41 41 40 39 40 41 41 41 42 43 42 42 41
47 47 47 47 46 45 44 44 44 44 44 43 43 43 44 44 45 45 45 44 44 43 43 43 42 41 41 40 40 41 41 42 41 41 41 41 40 40
47 47 47 47 47 46 45 44 44 44 44 45 44 44 45 45 44 44 44 43 43 42 42 42 41 41 40 41 40 40 40 40 40 40 40 39 39 38
48 48 48 48 47 46 45 44 44 45 45 44 44 44 44 44 43 43 43 42 41 41 40 40 40 40 39 39 39 38 38 38 38 38 38 38 38 37
48 48 48 47 46 46 45 44 44 44 44 44 43 43 43 43 42 42 41 41 40 39 38 38 38 38 38 38 37 37 38 37 37 37 36 36 36 35
48 48 47 46 46 45 45 44 44 43 43 42 42 41 41 41 41 40 39 38 37 37 37 36 36 36 36 35 36 36 36 36 36 35 35 35 34 35
46 45 45 44 44 44 43 43 42 41 40 40 40 39 39 39 38 38 37 36 35 35 35 35 35 35 35 34 33 34 34 34 33 33 33 34 33 32
43 42 41 41 41 41 41 40 39 38 38 38 38 37 37 37 37 36 35 35 34 33 33 33 33 33 33 32 31 32 33 33 32 32 32 32 31 31
40 39 38 37 37 37 37 37 36 36 36 36 35 35 35 35 34 33 33 33 32 32 31 31 31 31 31 31 31 31 32 32 32 32 31 31 30 29
38 37 36 36 35 35 35 34 34 34 34 33 33 33 32 31 31 31 31 31 30 30 30 30 30 30 30 30 30 30 31 31 31 31 30 30 29 27
36 36 35 34 34 34 33 33 33 32 32 32 31 31 30 30 30 30 30 30 29 29 29 29 30 30 30 29 29 29 29 29 29 28 27 27 27 26

GEFSNE_500_meanwind_180.txt.gz
Wind_Speed
37 37 37 37 38 38 38 38 38 37 36 37 37 38 38 38 39 40 40 41 42 42 42 42 42 41 41 40 40 40 40 41 41 41 40 38 37 37
39 39 39 39 39 39 39 39 39 39 38 37 38 38 39 39 40 40 41 42 41 41 41 41 41 41 41 41 41 41 42 41 40 39 39 39 38 38
41 41 41 40 40 41 41 40 40 40 40 39 39 40 40 40 40 41 41 41 41 41 40 40 40 41 41 40 41 41 41 41 39 39 39 39 39 39
43 43 43 42 42 41 41 41 41 41 41 41 40 40 41 40 41 41 41 42 42 41 42 41 41 40 40 40 40 40 40 39 39 38 38 38 38 39
44 44 44 43 42 42 41 41 41 42 42 42 42 42 42 41 41 41 42 42 42 42 42 42 41 40 40 41 40 39 39 39 38 38 38 38 38 39
44 44 44 43 43 42 42 42 42 42 42 43 43 42 42 42 42 42 42 42 42 42 41 41 40 40 41 40 40 39 38 38 38 38 38 39 39 39
44 44 44 44 44 44 44 44 44 44 43 43 43 43 42 42 43 43 43 43 42 42 41 41 41 40 40 40 40 39 39 38 38 38 38 39 39 39
45 45 45 45 45 45 46 46 45 45 44 44 43 43 43 43 43 43 43 43 43 42 42 42 41 41 41 40 40 39 39 38 38 38 39 39 39 39
47 47 47 47 47 47 47 47 47 46 46 45 44 43 44 44 44 43 43 43 43 42 42 42 42 41 41 40 40 40 40 40 39 39 39 39 39 39
49 49 49 48 48 49 49 48 48 47 46 46 45 44 44 44 44 44 44 44 43 43 43 43 43 42 41 41 40 40 40 40 40 40 40 40 40 40
51 51 51 50 50 51 51 50 49 48 47 47 46 46 45 45 44 44 44 44 44 44 44 43 43 42 42 42 41 41 41 41 41 42 41 41 42 41
52 52 52 52 52 53 53 51 50 49 48 48 47 46 46 46 46 45 44 44 44 44 44 43 43 43 43 42 43 43 42 43 43 43 43 42 42 42
54 54 53 53 53 53 53 52 51 50 49 48 48 47 47 47 46 45 45 44 44 43 43 43 43 43 43 42 42 43 43 43 43 43 43 42 42 42
55 54 54 54 53 53 52 52 51 51 50 49 48 48 47 47 46 45 45 44 44 44 44 43 43 42 42 42 42 42 42 43 43 42 42 41 41 41
54 53 53 53 52 52 51 51 51 50 50 49 48 47 47 47 46 45 45 45 44 43 43 43 42 42 41 41 41 41 41 41 41 41 40 40 40 40
52 52 51 50 50 50 50 50 50 50 49 49 48 46 46 46 45 45 44 44 43 42 42 41 41 41 40 40 39 39 39 39 39 39 38 38 39 39
50 49 48 47 47 47 47 47 47 47 48 47 46 45 45 44 44 43 43 42 42 41 40 40 40 39 38 38 37 37 37 37 37 37 37 37 37 37
47 46 45 45 44 44 44 44 44 44 45 45 45 44 44 43 42 41 41 41 40 40 39 39 38 37 37 36 36 36 36 36 36 36 36 36 35 35
44 43 42 42 42 42 42 42 41 41 41 42 42 42 41 41 41 40 39 38 38 38 37 37 36 36 35 35 34 34 35 34 34 34 34 33 33 32
41 41 40 40 40 39 39 39 39 39 39 39 39 39 39 39 39 38 37 36 36 36 35 35 35 34 34 33 33 33 33 33 33 33 32 32 31 31
40 39 39 39 39 38 38 38 37 37 37 36 36 37 37 36 36 35 35 34 34 34 33 33 33 33 32 32 31 31 31 32 32 31 31 31 31 31
39 39 39 38 38 37 37 36 35 35 35 35 35 34 34 34 33 33 33 32 32 32 31 31 31 31 31 31 30 30 30 30 30 30 30 30 30 29
39 38 38 37 37 36 35 34 33 33 33 33 33 32 32 32 31 31 31 31 31 30 30 29 29 30 30 30 29 29 29 29 29 29 29 29 28 28

GEFSNE_500_meanwind_186.txt.gz
Wind_Speed
39 39 39 39 39 39 39 39 39 38 37 38 38 38 39 39 39 39 39 40 39 39 38 39 40 40 39 40 40 40 40 40 40 40 40 40 40 39
41 41 41 42 42 41 42 42 41 41 40 40 40 40 41 40 40 40 40 40 40 39 39 39 40 40 40 40 40 41 41 40 40 40 40 41 40 39
43 43 43 44 43 43 43 43 43 43 43 42 43 43 42 41 41 41 41 40 40 40 40 41 41 41 41 41 42 42 42 41 40 40 40 40 39 38
45 45 45 45 45 44 44 44 44 44 44 44 44 44 43 43 43 42 42 41 41 41 41 42 42 42 42 42 43 42 41 41 41 41 40 39 38 38
47 47 47 47 46 46 46 46 46 46 46 45 44 44 45 45 44 43 43 42 42 42 42 42 43 43 43 43 43 42 42 41 41 41 40 39 38 38
48 48 47 48 47 47 47 46 46 47 47 47 46 45 45 45 45 44 44 44 43 43 42 43 43 43 44 44 43 42 42 42 41 40 40 39 39 38
49 48 48 48 49 48 48 48 48 48 48 48 47 47 46 46 46 45 45 44 44 44 44 44 44 44 44 44 43 43 42 41 41 40 40 39 38 38
49 49 50 50 50 50 50 50 51 50 50 50 49 49 48 47 47 47 46 45 44 44 45 44 44 44 44 44 43 43 42 42 41 40 39 39 39 38
51 52 51 52 52 52 53 53 53 53 53 52 51 50 50 49 49 48 48 48 47 46 46 45 45 44 44 43 43 43 42 42 41 40 40 40 40 40
52 52 53 53 53 54 54 54 54 54 54 54 53 51 51 51 50 50 50 49 48 48 47 46 46 46 45 44 43 42 42 42 42 42 42 42 41 41
53 53 53 54 54 54 54 54 53 53 53 53 53 52 52 52 51 51 50 50 49 48 48 47 46 46 45 44 43 42 42 42 43 43 43 43 43 43
53 53 53 54 54 54 54 54 53 53 53 53 52 52 53 53 52 52 51 50 49 49 48 48 47 46 45 44 43 43 43 42 42 43 43 43 43 43
54 54 54 55 55 55 55 55 55 54 54 53 53 52 52 52 52 52 51 50 50 49 49 48 47 46 45 45 44 43 43 42 42 42 42 42 42 43
56 55 56 56 56 56 56 56 55 55 55 54 53 53 52 52 52 52 50 50 50 49 48 47 46 45 45 44 44 43 42 42 42 41 41 42 42 42
56 56 57 57 56 56 56 56 55 55 54 53 52 52 51 51 51 50 49 49 49 48 47 46 45 44 44 44 43 42 42 42 42 42 42 42 41 41
56 56 56 56 55 55 54 54 53 52 52 51 50 49 49 49 48 48 47 46 46 45 45 44 44 44 43 43 43 42 42 42 42 42 41 41 41 40
56 55 55 54 53 53 52 51 50 50 49 48 48 47 46 46 46 46 45 44 44 43 43 42 43 44 44 43 43 42 42 41 41 40 39 39 38 38
55 54 53 52 51 50 49 48 48 47 47 46 45 44 43 43 43 42 42 42 42 42 42 41 42 42 41 41 41 41 40 40 39 39 38 37 36 36
52 51 50 49 48 47 47 46 45 45 44 43 43 42 41 40 40 40 40 40 40 40 39 39 40 40 39 38 38 38 38 37 37 36 36 36 35 34
48 47 46 46 45 45 44 44 43 42 41 40 39 39 39 39 38 37 37 37 38 38 38 37 37 38 37 36 35 34 35 35 35 34 34 34 33 33
44 44 43 43 42 41 41 41 40 40 39 38 38 38 37 37 36 35 35 35 36 36 35 35 35 36 35 34 32 32 33 33 33 32 32 32 31 30
41 40 40 39 39 38 38 38 37 37 37 37 37 36 36 35 34 33 34 34 33 34 34 34 34 33 32 31 30 30 31 31 31 31 30 30 30 29
37 37 37 36 36 36 36 36 36 36 36 36 35 34 33 33 32 32 32 32 32 32 32 31 31 31 30 29 29 29 29 29 29 29 29 29 28 28

GEFSNE_500_meanwind_192.txt.gz
Wind_Speed
43 43 42 43 42 41 40 40 40 39 39 39 40 41 41 42 42 41 41 41 40 39 39 39 39 39 39 40 40 40 40 40 41 41 41 41 40 39
44 43 43 43 43 44 44 44 43 43 42 42 42 42 43 43 43 43 42 42 42 41 41 41 41 41 41 41 41 41 41 41 41 41 41 41 40 39
44 44 44 45 46 46 45 45 45 45 44 44 44 44 44 45 45 44 43 43 43 42 42 42 43 43 42 42 42 42 41 41 41 41 42 41 40 40
46 45 46 47 47 48 48 47 47 47 47 46 46 47 46 46 46 45 45 44 44 44 44 44 44 44 44 44 44 43 43 42 42 42 41 42 42 41
49 49 49 49 49 50 50 50 50 50 50 50 49 49 48 48 47 47 46 45 45 45 45 45 45 44 45 44 44 44 43 43 43 43 42 42 42 42
50 50 50 50 51 51 51 52 52 52 52 51 51 50 50 49 48 48 47 47 46 46 46 46 46 46 46 45 45 45 44 44 43 43 42 42 42 42
50 50 50 51 52 52 52 52 53 53 52 52 51 50 50 50 50 49 49 48 48 48 47 47 47 48 48 47 46 46 46 45 44 44 43 43 42 41
52 51 51 51 52 52 52 52 53 52 52 52 51 51 51 51 51 51 51 50 50 50 50 49 49 49 49 48 47 47 46 45 44 44 43 43 43 42
53 53 54 54 55 54 53 53 53 52 52 52 52 52 52 52 52 52 52 52 52 52 52 51 51 51 51 50 49 48 47 45 44 44 43 43 43 42
54 54 55 56 56 56 55 55 55 54 55 55 55 54 54 53 53 53 53 53 53 54 54 53 52 52 52 51 50 49 48 46 45 44 43 42 43 42
55 56 56 56 56 56 56 56 56 56 56 56 56 56 56 55 55 54 53 54 54 54 54 54 54 53 52 51 50 49 48 47 46 45 44 44 44 43
56 56 56 56 56 56 57 57 57 57 57 57 57 57 56 56 56 56 55 55 55 55 55 55 54 54 52 51 51 50 48 48 47 46 45 44 44 43
56 56 56 56 56 57 57 57 57 57 57 57 57 56 56 56 55 55 55 55 55 55 54 54 53 53 53 51 50 49 48 47 47 46 45 45 44 43
56 56 56 56 56 56 57 57 58 57 57 57 56 55 55 54 55 55 55 55 54 54 53 53 52 52 51 50 49 48 46 46 46 45 44 44 43 43
55 55 55 55 56 56 56 56 57 57 57 57 56 55 55 54 54 54 53 53 52 52 51 50 50 49 49 48 47 45 44 44 44 43 43 43 42 42
55 54 54 54 54 54 54 54 55 55 55 55 54 54 54 53 53 53 52 51 50 50 49 49 48 47 46 45 44 43 43 42 42 42 42 42 41 41
53 53 52 52 52 53 53 53 53 54 54 54 53 53 53 53 52 51 50 50 49 48 47 47 46 46 44 43 42 41 41 40 40 40 40 40 39 39
52 51 51 51 51 51 52 52 52 52 52 53 52 52 52 51 49 49 48 48 47 46 46 45 45 43 42 41 40 40 40 39 39 38 38 38 37 37
51 50 49 48 48 49 49 50 50 50 50 50 50 50 49 48 47 46 46 46 45 45 44 43 42 41 39 38 38 39 38 37 37 36 35 35 35 35
49 48 48 47 47 47 47 47 47 47 47 47 46 46 45 45 45 44 44 43 43 42 41 40 39 37 36 36 36 36 36 35 35 34 33 33 32 33
46 46 45 45 45 44 44 44 44 44 43 43 43 43 43 43 43 42 42 41 40 39 38 37 36 35 34 34 34 33 33 33 32 32 31 31 31 31
43 43 42 41 41 41 41 41 40 40 40 40 40 40 40 40 40 40 39 38 38 36 35 34 33 32 32 32 31 30 30 30 30 30 30 30 30 29
40 40 39 39 39 39 38 38 37 37 37 38 38 38 37 37 37 37 36 35 35 33 33 32 31 31 31 30 29 28 28 29 29 29 28 29 29 28

GEFSNE_500_meanwind_198.txt.gz
Wind_Speed
45 45 44 44 44 44 44 44 43 42 41 41 42 42 42 42 42 42 42 42 42 42 42 41 42 42 41 41 40 40 40 40 40 40 40 39 39 39
44 45 45 45 45 45 45 45 44 44 43 43 44 44 44 44 44 44 44 44 44 44 44 44 44 43 43 42 42 42 42 42 42 42 42 42 42 41
46 46 46 46 46 46 47 46 46 46 45 45 45 46 46 46 47 47 47 47 47 46 46 46 46 45 45 44 44 44 44 45 45 44 44 44 44 42
48 48 47 48 48 49 48 48 47 47 47 47 47 48 48 49 48 48 49 49 48 48 48 48 48 48 47 47 46 46 46 47 47 47 46 45 45 44
48 48 48 49 48 49 49 49 49 49 49 49 49 50 50 51 50 50 50 50 49 49 49 50 50 50 50 49 48 48 48 48 48 48 47 47 46 45
49 49 50 51 50 50 50 51 51 51 51 51 51 52 51 51 51 51 50 51 51 50 51 51 51 51 50 50 49 49 48 48 47 47 47 47 47 46
50 51 52 53 53 53 53 53 52 52 53 52 52 52 52 52 52 52 51 51 51 52 52 52 51 51 51 50 49 49 49 48 47 47 47 47 47 46
51 52 53 54 55 54 54 54 54 53 53 54 53 53 53 53 53 53 53 53 53 53 53 52 52 52 51 50 50 50 50 50 49 49 48 48 47 47
51 51 52 53 54 55 55 55 55 55 54 54 54 54 55 54 55 55 55 55 55 55 54 52 52 52 52 51 51 51 51 51 51 51 50 50 49 48
52 52 53 54 54 55 55 55 56 56 56 56 56 55 56 56 57 57 57 56 56 56 55 53 52 52 52 52 52 52 52 52 52 51 51 50 49 48
53 53 54 54 55 56 56 56 57 57 57 58 57 57 57 57 58 58 57 57 56 55 55 54 53 53 52 52 53 53 53 52 52 52 51 50 49 48
54 54 54 55 56 56 57 57 57 57 57 58 58 59 58 58 58 58 57 56 55 54 53 53 52 52 51 51 52 52 52 52 51 50 50 49 48 47
54 54 54 55 56 56 56 56 57 57 58 58 59 58 57 57 56 56 55 54 54 52 52 52 51 51 51 51 50 51 51 51 50 49 48 47 46 45
53 54 54 54 55 55 55 55 55 56 57 57 57 56 55 54 54 54 54 54 53 52 52 52 52 52 52 51 50 50 50 50 49 48 47 46 45 44
53 53 53 53 53 53 53 54 54 55 54 54 54 54 54 53 53 53 53 53 52 51 51 51 52 51 51 51 50 49 48 48 47 46 45 44 44 43
52 52 52 51 51 51 52 52 52 53 53 52 52 52 53 53 52 52 52 52 52 51 51 51 52 51 50 50 49 47 46 45 44 43 43 43 42 42
52 51 51 51 50 51 51 51 50 51 51 51 51 51 51 51 51 51 52 52 52 51 51 52 51 51 49 48 47 45 44 43 42 42 41 41 41 41
51 50 50 50 49 49 50 49 49 49 50 50 51 50 49 49 49 50 51 51 51 50 49 49 49 48 47 46 45 43 42 41 41 40 40 39 38 38
48 47 48 48 48 48 48 48 47 48 49 49 49 48 48 48 48 48 48 48 48 48 47 46 46 45 44 43 42 42 41 41 40 39 38 37 36 36
46 45 45 45 46 46 46 46 47 47 47 47 47 46 46 46 46 46 46 46 45 45 44 44 44 43 43 42 41 40 40 39 38 38 37 36 35 34
44 43 43 44 44 44 44 44 44 44 44 44 45 45 45 44 44 43 43 43 43 43 42 41 41 41 41 40 39 37 37 37 36 36 35 33 33 32
41 42 42 42 42 41 42 42 42 42 42 42 42 43 42 42 41 41 41 41 40 40 39 39 38 38 38 37 36 35 34 34 33 33 32 31 30 30
40 40 40 40 41 41 41 41 41 40 40 40 41 40 40 39 39 39 38 38 38 37 36 35 34 34 34 33 33 32 31 31 30 30 29 29 29 29

GEFSNE_500_meanwind_204.txt.gz
Wind_Speed
45 44 44 44 43 43 43 44 43 43 43 43 42 42 42 42 42 42 42 42 42 42 42 42 42 43 43 43 43 44 44 44 43 43 43 43 43 42
45 45 46 46 46 46 45 45 45 45 45 45 44 44 44 44 45 45 45 45 44 44 45 44 44 44 44 45 45 45 46 46 45 45 44 44 44 44
45 46 47 47 46 46 46 46 47 47 47 48 47 47 46 46 47 47 47 47 46 46 47 47 46 46 46 46 47 48 48 47 47 47 46 46 46 45
47 47 47 48 48 48 48 49 49 50 50 50 49 49 49 49 49 49 49 49 49 49 48 48 48 48 48 49 49 49 49 48 49 48 48 47 47 47
47 47 48 50 50 50 50 51 51 51 51 52 52 52 51 51 51 51 51 52 51 51 50 50 50 50 51 51 51 51 51 50 50 49 48 48 48 48
49 49 50 51 52 52 53 53 52 52 52 54 54 54 54 53 54 53 53 53 52 52 52 52 52 52 52 52 52 52 51 51 51 50 50 50 49 49
51 51 51 52 53 54 54 53 53 53 54 55 55 56 56 56 55 54 54 54 54 54 54 54 54 54 54 53 53 52 52 52 52 51 51 51 51 50
52 52 52 53 54 55 55 55 54 54 55 55 55 55 55 56 56 55 55 55 55 55 55 55 55 54 54 53 53 53 53 53 53 52 52 52 52 51
53 53 53 54 55 56 56 56 56 55 55 56 56 56 57 56 57 57 56 56 55 55 56 55 54 54 54 54 54 54 54 54 53 53 53 53 52 51
54 55 55 55 55 56 57 57 57 56 56 57 57 57 57 57 57 57 56 56 56 56 56 56 55 55 55 55 54 54 54 53 52 52 52 51 50 50
54 55 55 55 55 56 57 57 57 56 56 56 56 57 57 57 57 57 57 57 56 56 57 57 56 56 55 54 53 53 53 52 52 52 51 50 50 49
54 54 54 55 55 56 56 57 57 56 56 56 56 56 57 57 57 57 58 57 57 56 56 55 55 55 54 53 53 52 52 51 51 51 50 49 49 48
53 53 53 54 54 55 55 56 56 56 56 56 56 56 55 55 55 56 56 56 56 55 54 54 54 54 54 53 52 53 52 51 50 50 49 49 48 47
52 51 52 52 53 53 54 54 53 54 55 55 55 54 53 53 53 54 54 55 55 55 54 54 54 53 53 52 51 51 51 51 50 49 48 48 48 47
51 51 51 51 51 51 51 52 52 53 54 54 53 53 53 53 53 53 53 53 53 53 53 54 53 53 52 52 51 51 50 49 49 48 47 47 47 46
51 50 50 50 50 50 50 51 51 51 52 53 53 52 52 52 52 52 52 52 52 52 52 53 52 52 52 51 51 50 49 48 48 48 47 46 46 45
50 50 50 49 48 49 49 50 50 50 51 51 51 51 51 51 50 50 50 51 51 51 51 51 51 50 50 50 49 49 48 47 47 47 47 46 46 45
48 48 47 47 48 48 48 49 49 50 50 50 50 50 49 48 48 49 49 49 49 48 48 49 49 48 48 47 48 48 47 46 46 46 46 44 43 43
45 45 45 46 47 47 48 48 48 48 49 48 48 47 48 47 47 47 47 47 47 46 47 47 47 46 46 46 46 47 46 45 44 43 42 41 40 40
45 44 44 45 45 46 47 47 47 47 47 46 46 45 45 45 45 45 45 45 45 45 45 45 45 45 44 44 44 44 43 42 41 40 40 39 38 38
43 43 43 44 45 45 46 46 46 45 44 44 44 44 44 44 44 44 44 44 44 44 43 43 43 43 43 43 42 41 40 39 38 38 37 37 36 35
42 42 42 43 44 44 44 45 45 44 43 43 42 43 43 43 44 44 43 43 43 42 41 41 41 42 42 41 39 37 36 35 35 35 34 34 34 33
41 41 41 42 41 41 42 42 42 42 43 42 42 42 42 42 42 42 42 41 41 40 39 39 39 39 39 37 36 34 33 32 32 31 31 31 31 30

GEFSNE_500_meanwind_210.txt.gz
Wind_Speed
43 44 44 44 45 45 45 45 45 43 43 43 42 43 43 43 43 43 43 42 42 42 42 42 43 43 43 44 44 44 44 44 44 44 44 44 44 45
44 44 44 44 45 47 47 48 48 46 45 44 44 44 44 45 44 44 44 45 44 44 45 45 45 45 46 46 46 46 46 46 46 46 46 46 46 46
45 45 46 47 47 48 48 49 49 48 47 47 47 46 47 46 46 46 47 47 47 47 47 48 48 48 49 48 48 49 49 48 48 48 48 48 48 47
46 46 47 48 48 48 49 49 49 49 50 50 50 50 49 49 49 49 49 49 50 50 50 51 51 51 51 51 51 51 51 50 50 50 50 49 49 49
48 48 49 49 49 50 50 50 50 50 52 53 53 53 52 51 51 51 52 52 52 52 53 53 53 54 53 52 53 53 52 52 51 51 51 51 50 50
50 50 51 51 51 51 51 51 51 52 53 53 54 54 54 53 52 53 54 55 54 54 55 55 55 54 54 53 53 53 53 53 52 52 52 51 51 50
51 51 52 52 52 51 52 53 53 54 54 54 54 55 55 55 55 55 56 56 56 55 56 56 55 54 54 54 54 54 54 54 53 52 52 52 52 52
52 52 52 52 52 52 53 53 54 53 53 54 55 55 55 56 56 56 56 56 56 56 56 55 54 54 55 55 55 55 55 54 54 53 53 53 52 52
51 52 53 53 54 54 53 53 53 53 53 53 54 55 55 56 57 56 56 55 55 55 56 55 55 55 55 55 55 55 55 55 55 54 54 53 53 52
51 51 52 52 52 52 53 53 53 54 54 54 54 55 55 55 55 55 55 55 55 54 55 55 55 55 55 55 56 56 56 55 55 54 52 52 51 51
51 52 52 51 51 52 54 54 54 54 54 54 55 55 55 55 55 55 54 54 54 54 54 55 55 54 54 54 55 55 55 54 53 52 51 51 50 50
51 51 51 51 52 53 54 54 54 54 54 54 53 53 54 54 54 54 54 54 54 54 53 54 54 54 53 52 53 53 53 52 52 51 51 50 50 49
51 51 52 52 52 52 53 53 53 53 54 53 53 53 53 53 53 53 53 54 54 53 53 53 53 53 53 51 49 50 50 50 50 51 50 50 50 49
53 53 52 53 53 52 52 52 53 53 52 52 52 52 52 52 52 53 53 53 53 52 52 52 52 51 51 49 48 48 49 49 49 50 49 49 49 49
53 54 54 54 53 53 52 51 52 52 51 51 51 50 51 52 51 51 51 51 51 51 51 51 51 50 50 49 47 47 47 48 48 48 48 48 48 48
52 53 53 53 53 52 51 51 50 50 50 49 50 50 50 50 50 50 50 50 50 50 50 50 49 48 48 48 47 46 46 46 46 47 47 47 47 47
50 51 51 51 51 50 50 50 49 49 48 48 49 49 49 49 49 49 49 49 48 47 46 46 46 46 46 47 46 45 45 46 46 46 46 45 45 45
48 48 48 49 49 49 49 48 48 48 48 48 48 47 47 48 48 48 47 47 46 45 44 44 45 45 44 44 44 44 44 44 44 44 44 43 42 42
47 47 47 48 48 48 47 47 46 46 46 47 47 47 47 47 47 46 45 44 43 43 43 43 43 43 43 42 42 43 43 42 42 41 41 40 39 38
46 46 46 46 46 45 45 44 45 45 46 46 46 46 45 45 45 45 44 43 43 42 42 42 42 42 42 41 41 41 42 41 39 38 37 37 36 35
45 45 44 44 44 44 43 44 44 44 45 45 44 43 43 43 42 42 42 42 42 41 41 41 41 42 42 41 40 38 38 38 36 36 35 34 33 33
43 43 43 43 43 43 43 43 43 43 43 42 42 42 41 41 40 40 41 41 41 41 41 41 41 41 40 39 38 36 35 35 35 34 33 32 32 31
40 40 40 41 42 42 42 42 41 41 41 41 40 40 40 39 40 40 41 41 41 41 40 40 39 38 37 37 36 35 34 34 33 32 31 31 31 30

GEFSNE_500_meanwind_216.txt.gz
Wind_Speed
43 43 43 43 43 43 44 44 44 44 43 43 43 44 44 44 44 43 43 43 44 44 44 45 46 46 46 47 46 46 46 46 46 47 47 47 46 46
44 44 44 44 44 44 44 45 46 46 44 44 44 45 46 46 46 46 45 46 46 46 47 47 48 49 49 49 49 49 49 49 49 49 49 49 49 50
44 44 44 44 45 45 45 46 47 47 47 46 47 47 48 48 47 48 48 49 49 49 50 50 50 50 50 51 51 51 51 51 51 52 52 52 52 52
44 44 45 46 46 46 46 47 48 49 49 48 49 50 50 50 50 51 51 51 52 52 53 53 52 52 52 53 53 53 53 54 54 54 55 55 54 54
46 45 45 46 47 47 47 48 49 49 50 51 51 51 52 52 52 52 52 53 54 55 56 57 56 55 54 54 55 56 56 56 56 56 56 56 56 55
47 47 46 47 48 49 49 49 49 50 51 52 52 52 53 53 54 54 55 55 56 57 57 58 58 57 56 57 57 57 57 57 57 57 56 56 56 55
48 48 49 49 49 50 50 50 51 52 52 53 54 55 55 55 55 56 57 56 56 58 58 57 57 56 56 57 58 58 58 58 57 57 56 56 56 56
49 49 50 50 51 51 52 53 53 54 55 56 56 56 56 56 56 56 57 57 56 56 56 56 57 57 57 57 58 58 58 57 57 56 56 56 56 56
50 51 51 52 53 54 55 55 55 56 57 57 57 57 56 57 57 57 56 56 56 56 56 56 57 56 55 56 56 57 57 57 57 57 57 56 56 56
50 51 52 53 55 55 56 56 56 56 57 57 57 57 57 57 57 57 56 56 55 55 56 55 55 55 54 54 55 56 56 56 56 57 57 56 55 54
51 52 53 53 54 55 56 56 56 56 56 57 56 56 56 56 57 56 56 56 55 55 56 56 55 54 53 53 54 55 55 55 55 55 55 54 53 53
52 53 54 54 55 55 55 55 56 56 56 56 55 56 56 56 56 56 56 56 55 55 55 56 55 54 53 52 53 54 54 54 53 53 52 52 52 51
52 53 53 53 54 55 55 55 55 55 55 55 55 56 56 56 57 57 57 57 56 56 56 56 56 55 54 53 52 53 53 52 52 51 51 51 50 50
52 52 52 53 54 54 54 54 53 53 53 53 54 55 55 55 55 56 56 56 56 56 56 57 56 56 54 53 51 51 51 51 51 50 50 50 50 49
52 52 52 53 53 54 54 54 54 53 53 53 53 53 54 54 54 54 54 54 54 54 55 55 54 53 52 51 49 48 49 49 49 48 48 47 47 46
52 52 52 53 53 53 53 53 54 53 52 52 52 52 53 53 53 52 51 51 51 50 51 51 50 50 49 48 48 48 47 47 46 46 45 44 43 43
50 50 50 50 51 51 51 52 52 52 52 52 51 50 50 49 49 48 48 48 47 47 48 49 49 48 48 47 46 46 45 43 43 42 42 42 42 43
48 49 49 49 49 50 50 50 50 50 51 51 50 49 48 47 46 45 45 45 45 45 46 46 47 47 46 45 45 44 43 42 41 41 41 41 41 42
48 48 48 48 48 48 48 48 48 48 48 48 47 46 45 44 44 43 44 44 43 43 44 44 45 45 45 43 42 43 41 40 40 40 40 40 40 41
45 45 45 46 47 47 46 45 45 45 45 44 44 43 43 43 42 42 42 43 43 42 42 43 43 44 44 42 40 40 40 40 40 40 40 41 41 41
43 44 44 44 44 44 43 43 42 42 41 41 41 41 42 42 41 41 41 42 42 42 41 41 42 42 42 40 39 39 39 40 41 40 40 40 40 39
42 42 42 43 42 42 41 40 40 40 40 40 40 40 41 41 40 40 40 41 41 41 41 41 41 41 40 39 39 38 38 39 40 40 39 39 39 37
41 41 41 41 41 40 39 39 39 39 39 39 39 40 40 40 39 39 39 40 40 39 39 39 39 39 39 39 38 38 37 37 37 38 38 37 36 34

GEFSNE_500_meanwind_222.txt.gz
Wind_Speed
45 45 45 45 44 43 42 41 41 42 41 41 42 43 43 43 42 42 42 42 42 43 44 44 44 44 45 45 45 46 47 48 48 49 49 49 50 50
45 45 45 46 45 44 44 43 43 42 43 43 43 43 43 43 43 43 44 44 45 45 46 46 46 46 46 46 47 48 49 50 50 50 51 51 52 52
46 46 46 45 46 47 45 44 44 44 44 44 44 44 44 44 44 45 45 46 46 47 47 48 48 49 49 49 50 50 51 52 53 54 54 54 55 55
47 48 49 48 48 48 48 47 46 46 45 45 45 46 46 46 46 46 47 47 48 49 50 50 51 51 52 53 53 54 54 55 55 56 56 56 57 57
48 49 50 50 49 49 50 50 48 47 47 47 47 47 48 48 49 49 49 50 50 51 52 52 52 53 54 55 56 56 57 57 58 58 58 57 57 57
50 50 50 51 49 49 49 50 49 49 48 48 48 48 48 49 50 51 51 52 52 53 54 55 55 55 55 56 57 57 58 58 58 58 58 57 56 56
50 50 50 51 50 50 49 50 50 50 50 49 49 50 51 51 51 52 53 53 54 55 55 56 56 56 56 57 57 57 57 57 57 57 57 56 56 56
51 51 50 50 50 50 50 50 50 50 51 51 51 51 52 53 53 54 54 55 55 55 55 55 56 56 56 57 57 57 57 57 57 57 56 55 55 56
51 51 50 50 50 49 50 50 51 52 52 52 52 53 54 54 55 56 56 57 56 56 56 55 55 55 56 56 56 57 56 57 57 56 56 56 56 56
51 51 50 50 50 51 51 52 52 52 53 54 55 55 56 57 57 57 58 57 57 56 56 56 56 55 54 55 56 56 56 57 57 57 57 57 57 57
50 50 50 51 51 52 52 52 53 54 55 56 57 57 58 58 58 58 57 58 57 56 57 57 57 56 55 56 56 57 57 57 57 58 58 58 57 57
49 49 50 51 51 52 53 54 54 55 56 56 57 58 57 57 57 57 58 58 58 57 57 58 57 57 56 55 56 57 57 57 58 58 57 56 55 54
48 49 50 51 51 52 53 54 55 56 56 57 57 57 57 57 57 57 58 58 59 59 59 59 58 57 57 56 56 56 57 57 56 55 54 53 52 51
49 49 50 50 51 52 54 54 55 55 56 56 57 57 57 57 57 57 57 58 58 59 59 59 58 58 57 57 56 56 56 55 54 52 50 50 49 49
49 50 50 51 51 52 53 54 54 55 55 55 56 56 55 55 56 56 56 56 56 57 57 57 57 57 57 57 56 54 53 52 51 50 48 48 48 47
50 50 51 51 51 52 52 52 53 53 54 54 54 54 54 54 54 54 54 54 53 53 53 54 54 54 54 54 54 52 52 51 49 48 47 47 47 46
50 50 51 50 51 51 51 51 51 51 52 52 52 52 52 52 52 52 52 52 52 52 51 52 52 52 51 50 50 50 49 48 47 46 46 45 45 46
48 49 49 48 48 49 49 50 50 50 50 50 50 50 50 50 50 50 50 51 50 50 49 49 48 47 47 47 47 47 46 45 43 44 44 43 43 43
46 46 47 47 47 48 48 49 49 49 49 49 48 48 49 48 48 48 48 47 46 46 46 46 45 45 45 44 43 44 43 41 41 41 41 41 41 41
44 45 45 46 46 47 47 47 47 47 47 47 47 47 47 46 46 45 44 44 43 43 43 43 43 43 43 42 40 40 40 39 39 38 39 39 38 38
42 43 44 44 45 46 46 46 46 46 46 46 46 46 45 44 43 43 42 41 41 41 41 41 41 41 40 39 38 36 36 37 37 38 37 37 36 36
40 41 42 43 44 45 45 45 45 46 45 45 44 44 43 42 41 41 41 40 40 40 40 39 40 39 38 38 36 34 33 35 36 36 36 37 36 35
39 40 40 41 41 42 43 43 44 45 44 43 42 41 41 41 40 40 40 40 39 39 39 39 38 38 38 37 35 34 33 34 35 35 35 36 36 35

GEFSNE_500_meanwind_228.txt.gz
Wind_Speed
46 45 45 44 44 44 44 44 44 44 42 41 42 42 43 43 42 43 42 42 41 42 42 42 43 44 44 44 45 45 46 46 46 47 47 47 48 48
47 46 46 46 45 45 45 45 45 44 44 43 43 43 44 45 44 45 45 44 44 44 44 45 45 45 45 46 46 47 48 48 49 50 49 50 51 51
49 48 47 47 47 47 47 46 45 45 45 45 45 45 46 46 46 45 46 46 46 46 46 47 47 46 46 47 48 49 49 50 51 51 51 52 53 53
49 48 48 48 48 49 48 48 48 48 48 47 47 47 47 47 47 46 46 47 46 47 47 47 48 48 47 48 49 51 52 52 53 54 55 55 55 56
49 49 49 49 49 49 49 49 49 49 49 49 49 49 49 49 48 49 49 48 48 48 49 49 49 49 49 50 51 52 53 54 54 56 57 57 57 57
48 49 49 50 50 50 50 50 50 49 49 49 49 49 49 50 50 51 51 50 50 50 51 51 51 51 52 53 54 55 55 56 57 58 58 59 59 59
48 49 49 50 51 51 51 51 51 50 49 50 50 50 50 50 50 51 51 51 51 51 52 52 53 54 55 56 57 57 58 58 59 59 60 60 60 59
50 50 49 50 50 51 52 52 52 51 50 50 50 50 51 51 51 51 51 52 52 52 53 54 55 56 57 58 58 59 59 60 60 60 60 59 60 59
50 50 51 51 52 52 53 53 53 52 52 51 51 51 50 51 51 52 52 53 53 54 55 55 57 57 58 58 58 59 59 60 60 59 59 59 59 58
50 51 51 52 52 53 53 54 54 54 53 53 52 52 51 51 52 53 53 54 54 55 56 56 56 58 58 58 59 59 59 59 59 59 58 58 58 58
51 51 51 52 52 52 52 53 53 53 53 53 53 53 52 52 53 53 54 54 54 54 55 56 56 57 56 56 57 57 58 58 58 58 58 57 57 57
50 50 50 50 51 51 51 52 53 52 53 53 53 53 54 54 54 54 55 55 55 55 56 56 56 56 55 54 55 56 57 57 57 57 57 57 56 56
49 49 49 50 50 51 52 52 52 53 53 53 54 54 54 55 55 55 55 56 56 56 56 56 55 55 55 54 54 55 55 56 56 56 55 55 55 55
47 47 48 49 49 50 51 51 52 53 53 53 53 54 54 55 56 56 56 56 56 56 56 55 55 56 56 56 56 55 55 56 56 55 54 54 54 53
46 47 48 48 48 48 49 50 51 51 52 53 53 53 54 55 56 56 56 56 56 56 56 56 57 57 57 57 56 56 55 54 54 54 54 53 53 53
46 47 47 48 48 48 49 50 50 51 51 52 52 53 54 54 54 54 55 55 55 55 56 56 56 56 56 56 56 55 54 54 53 53 53 53 53 52
45 46 47 48 48 49 49 49 49 49 50 51 52 52 52 52 53 53 53 53 54 54 54 54 54 54 54 54 54 53 53 52 52 51 50 50 50 49
44 45 46 46 47 48 48 48 48 49 49 49 50 50 50 50 50 51 51 52 52 52 52 52 52 52 52 51 51 51 50 49 48 48 47 47 46 45
44 45 45 45 46 47 48 48 48 48 48 48 48 48 48 48 48 49 49 50 50 50 50 50 50 50 49 48 48 48 46 45 44 44 44 43 42 41
44 44 44 45 45 46 46 47 47 47 47 47 47 47 47 48 48 48 48 48 48 48 48 48 48 47 47 46 45 44 44 43 42 42 41 41 40 40
42 43 44 44 44 44 44 45 45 46 46 46 46 46 47 47 47 47 47 47 47 47 46 46 45 45 44 44 43 42 42 42 41 40 39 38 37 37
41 42 42 42 43 43 43 44 44 45 45 45 45 46 46 46 46 46 45 45 45 44 43 42 42 41 41 41 40 39 39 39 38 38 37 37 36 36
39 39 40 40 41 41 42 43 43 44 44 44 44 45 45 44 44 44 43 43 42 42 41 40 39 39 39 39 38 37 37 36 35 35 36 37 37 36

GEFSNE_500_meanwind_234.txt.gz
Wind_Speed
43 43 43 43 43 43 42 42 41 41 40 41 41 42 42 41 41 41 41 42 42 41 41 41 41 41 41 41 41 42 42 42 43 44 44 44 44 44
44 44 44 44 44 44 44 43 43 43 43 43 43 43 42 42 42 43 42 42 43 43 43 43 42 43 44 43 43 43 44 44 44 44 45 45 46 46
44 44 45 45 45 45 45 44 44 44 44 43 44 43 43 43 43 43 43 43 43 44 45 45 44 44 45 45 44 45 46 46 47 47 47 47 47 47
45 45 45 46 46 45 45 44 44 44 44 44 43 43 44 44 44 44 43 44 44 45 45 46 46 46 46 45 46 47 47 48 49 49 49 49 49 50
45 45 46 47 46 46 46 45 45 45 45 46 45 45 45 45 45 45 45 44 44 45 45 46 46 46 46 47 47 48 49 49 50 50 51 51 52 52
45 45 46 47 47 47 47 47 47 46 46 46 45 46 47 47 47 46 46 45 45 45 46 46 46 47 48 49 50 51 52 52 52 53 53 54 54 54
45 45 45 46 46 46 47 47 47 47 47 48 47 48 47 47 47 48 48 46 46 46 46 47 48 49 51 52 53 54 54 54 55 55 55 56 56 56
46 46 46 46 46 46 46 47 48 49 49 49 48 49 48 48 48 49 50 49 48 48 48 49 51 52 53 54 54 53 54 54 55 56 57 57 57 57
47 47 47 47 47 47 47 47 48 48 49 50 50 50 50 50 50 50 50 49 49 50 50 51 52 52 53 53 53 53 54 54 55 56 57 57 58 58
47 47 47 47 47 47 47 48 48 48 48 50 51 51 51 50 50 51 51 51 52 52 52 52 52 52 52 52 53 53 54 55 56 56 56 57 57 57
48 48 47 47 47 47 47 47 47 48 48 49 49 50 50 50 50 51 51 52 52 52 52 52 52 52 51 52 53 54 55 56 56 56 56 56 56 56
48 48 49 49 48 48 48 47 47 48 48 49 49 49 48 48 49 50 50 51 51 52 51 52 52 53 52 52 53 54 55 55 55 55 55 55 56 55
47 48 48 48 49 48 48 47 47 47 48 48 48 48 49 49 49 49 49 50 51 51 52 52 52 53 53 53 52 52 53 54 54 54 54 54 54 54
45 45 47 47 48 48 47 47 47 47 47 48 49 49 50 49 49 49 49 50 51 52 52 53 53 53 53 53 52 52 52 53 54 54 54 54 53 53
44 44 45 45 45 46 47 47 48 48 49 49 49 49 49 49 49 50 50 50 51 52 52 52 52 52 53 53 53 52 52 52 53 53 52 52 51 51
44 44 44 44 44 45 46 47 48 49 49 50 49 49 49 50 50 51 51 51 51 51 51 51 52 52 53 53 53 53 52 52 51 51 50 49 49 49
44 44 44 45 45 46 46 47 47 48 49 49 49 49 49 49 50 50 51 50 50 49 49 50 51 51 51 51 52 51 50 49 49 48 47 47 47 47
43 43 43 44 44 45 46 46 47 47 47 48 49 49 49 50 49 49 49 48 48 48 49 49 50 50 50 50 50 50 49 48 47 47 46 47 46 47
42 42 42 43 43 44 45 45 46 46 46 47 48 48 49 49 48 48 47 47 48 48 48 48 49 49 49 48 48 49 48 47 46 46 47 47 46 45
42 42 43 43 43 43 44 44 45 45 46 47 48 48 48 48 47 47 47 47 47 47 47 47 47 48 47 47 46 46 46 46 46 45 45 45 44 44
41 42 43 43 43 43 43 44 44 45 45 46 47 47 46 46 46 46 46 46 46 46 46 46 45 46 45 45 44 43 44 44 44 43 43 42 41 42
41 41 42 42 42 42 43 43 43 44 44 45 45 45 45 45 46 46 46 46 46 46 46 45 45 45 44 43 42 41 41 41 42 42 41 41 40 40
40 40 41 41 40 40 41 41 42 42 43 43 43 43 44 44 45 46 46 46 46 46 46 45 44 43 43 42 41 41 40 40 40 40 40 40 40 39

GEFSNE_500_meanwind_240.txt.gz
Wind_Speed
39 39 39 39 39 39 38 38 38 38 38 38 38 37 37 38 38 38 38 37 38 39 39 39 39 39 39 39 39 39 39 40 40 40 40 41 41 41
41 40 40 40 40 39 39 39 39 39 39 39 38 39 39 38 39 39 39 39 39 39 39 39 39 40 40 40 40 40 41 41 41 41 42 43 43 43
41 41 40 40 40 41 41 40 41 41 41 40 41 41 41 40 41 41 41 41 41 41 40 40 40 40 41 41 42 42 42 42 43 43 44 44 45 45
42 42 42 41 41 42 42 42 42 42 43 42 42 43 43 43 43 43 43 43 43 42 42 42 42 42 43 43 43 44 44 44 44 44 45 46 47 47
44 44 43 43 43 43 43 43 43 44 44 45 44 45 45 46 46 45 45 44 43 44 44 44 44 44 45 45 45 45 46 46 46 46 46 47 48 49
45 45 44 44 44 44 44 44 45 45 45 45 46 46 46 47 47 46 46 45 45 46 46 46 46 47 47 47 47 48 48 48 48 48 49 49 50 51
46 46 46 45 45 45 45 45 45 46 46 47 47 47 47 47 47 47 48 47 47 47 48 48 48 48 49 49 50 50 50 50 49 50 50 51 51 52
47 47 47 46 46 47 47 47 47 47 47 47 47 47 46 47 48 48 48 48 48 48 49 49 50 49 49 49 50 50 50 50 51 51 51 52 53 54
49 48 48 48 48 48 48 47 47 47 48 48 47 47 47 47 48 48 49 49 48 48 49 49 49 49 49 49 49 50 50 50 51 52 52 53 53 54
50 49 49 48 48 48 47 47 47 47 48 47 47 47 48 48 48 49 49 49 50 50 49 49 48 48 48 49 49 49 50 50 51 52 52 53 54 55
50 50 49 49 48 48 48 48 47 47 47 47 47 47 47 47 47 47 48 48 48 48 48 48 47 47 48 48 49 50 51 51 52 53 53 54 54 54
49 49 48 48 48 48 48 47 47 46 46 46 47 47 47 47 47 47 47 47 47 47 47 48 48 48 48 48 49 50 51 52 53 54 54 54 55 54
49 49 48 48 48 47 47 47 47 47 47 48 48 48 48 48 48 48 48 48 48 48 48 48 48 49 50 50 50 50 51 52 53 54 54 55 55 54
50 49 49 49 49 48 48 48 49 49 49 49 49 49 49 48 48 49 48 48 49 48 49 49 50 50 51 51 51 51 51 52 52 53 53 54 53 53
49 48 48 49 49 49 49 50 50 50 50 49 49 49 50 50 50 50 49 49 49 49 50 50 51 52 52 52 51 51 51 52 52 52 52 52 52 51
48 48 48 48 49 49 49 49 50 49 49 49 50 50 50 50 50 50 50 50 50 50 51 52 52 52 52 52 52 52 52 52 52 52 52 51 51 51
47 47 47 47 47 47 47 47 47 47 48 49 50 50 50 50 51 51 51 51 51 52 52 53 53 53 52 52 52 51 51 51 51 51 51 51 51 51
45 46 46 46 46 46 46 46 46 47 48 49 50 50 51 51 51 51 52 52 52 52 52 52 52 52 52 51 51 51 51 50 50 50 51 50 49 50
45 45 45 45 45 45 46 46 46 46 47 48 49 49 50 50 50 50 51 51 50 50 50 51 51 51 50 50 49 50 49 49 49 49 49 48 47 47
45 45 45 45 45 45 45 45 45 45 46 46 47 47 48 48 48 49 50 50 50 50 50 50 50 50 50 49 48 48 49 49 48 48 47 46 45 45
44 44 44 44 44 44 44 44 44 44 45 45 45 46 47 47 48 48 49 49 50 50 50 49 49 49 49 49 48 48 49 49 49 47 46 45 44 43
43 43 43 43 43 43 44 44 44 44 45 45 45 45 46 47 47 48 48 49 49 49 49 49 49 49 49 48 48 47 47 48 48 47 45 44 43 42
42 41 41 42 42 42 43 44 44 44 45 45 46 46 46 47 47 47 47 47 47 47 47 47 47 47 48 48 47 47 46 46 45 45 44 43 43 43